Observation data for Clyde on 08/03/2020      Previous  Date       Current Mesonet Observations  Soil Data  Daily Summary Page  Observations in Plain Language
KCL2 030500Z 12009KT 27/15 A3006 RMK A01 T02690152  RH  049%=      5-min Rain = 0
KCL2 030501Z 12009KT 27/15 A3006 RMK A01 T02690153  RH  049%=      5-min Rain = 0
KCL2 030502Z 12009KT 27/15 A3006 RMK A01 T02690153  RH  049%=      5-min Rain = 0
KCL2 030503Z 12008KT 27/15 A3006 RMK A01 T02690153  RH  049%=      5-min Rain = 0
KCL2 030504Z 12009KT 27/15 A3006 RMK A01 T02690153  RH  049%=      5-min Rain = 0
KCL2 030505Z 11009KT 27/15 A3006 RMK A01 T02690153  RH  049%=      5-min Rain = 0
KCL2 030506Z 12010KT 27/15 A3006 RMK A01 T02690153  RH  049%=      5-min Rain = 0
KCL2 030507Z 12009KT 27/15 A3006 RMK A01 T02690153  RH  049%=      5-min Rain = 0
KCL2 030508Z 12008KT 27/15 A3005 RMK A01 T02690153  RH  049%=      5-min Rain = 0
KCL2 030509Z 12010KT 27/15 A3006 RMK A01 T02680153  RH  049%=      5-min Rain = 0
KCL2 030510Z 12010KT 27/15 A3006 RMK A01 T02680154  RH  049%=      5-min Rain = 0
KCL2 030511Z 12009KT 27/15 A3006 RMK A01 T02680153  RH  049%=      5-min Rain = 0
KCL2 030512Z 12009KT 27/15 A3006 RMK A01 T02680153  RH  049%=      5-min Rain = 0
KCL2 030513Z 12008KT 27/15 A3006 RMK A01 T02680154  RH  049%=      5-min Rain = 0
KCL2 030514Z 11009KT 27/15 A3006 RMK A01 T02680154  RH  049%=      5-min Rain = 0
KCL2 030515Z 11009KT 27/15 A3006 RMK A01 T02680154  RH  050%=      5-min Rain = 0
KCL2 030516Z 12008KT 27/15 A3006 RMK A01 T02680154  RH  050%=      5-min Rain = 0
KCL2 030517Z 12008KT 27/15 A3006 RMK A01 T02670154  RH  050%=      5-min Rain = 0
KCL2 030518Z 11009KT 27/15 A3006 RMK A01 T02660154  RH  050%=      5-min Rain = 0
KCL2 030519Z 11007KT 27/15 A3006 RMK A01 T02670154  RH  050%=      5-min Rain = 0
KCL2 030520Z 11008KT 27/15 A3006 RMK A01 T02660154  RH  050%=      5-min Rain = 0
KCL2 030521Z 11007KT 27/16 A3006 RMK A01 T02660155  RH  050%=      5-min Rain = 0
KCL2 030522Z 11008KT 27/16 A3006 RMK A01 T02650155  RH  051%=      5-min Rain = 0
KCL2 030523Z 11009KT 27/16 A3006 RMK A01 T02650155  RH  051%=      5-min Rain = 0
KCL2 030524Z 11007KT 27/16 A3006 RMK A01 T02650155  RH  051%=      5-min Rain = 0
KCL2 030525Z 11008KT 27/16 A3006 RMK A01 T02650155  RH  051%=      5-min Rain = 0
KCL2 030526Z 11008KT 27/16 A3006 RMK A01 T02650155  RH  051%=      5-min Rain = 0
KCL2 030527Z 11008KT 27/16 A3006 RMK A01 T02650155  RH  051%=      5-min Rain = 0
KCL2 030528Z 11009KT 26/16 A3006 RMK A01 T02640155  RH  051%=      5-min Rain = 0
KCL2 030529Z 11009KT 26/16 A3006 RMK A01 T02640155  RH  051%=      5-min Rain = 0
KCL2 030530Z 11009KT 26/15 A3006 RMK A01 T02640154  RH  051%=      5-min Rain = 0
KCL2 030531Z 12009KT 26/15 A3006 RMK A01 T02640154  RH  051%=      5-min Rain = 0
KCL2 030532Z 12008KT 27/16 A3006 RMK A01 T02650155  RH  051%=      5-min Rain = 0
KCL2 030533Z 12008KT 27/16 A3006 RMK A01 T02650155  RH  051%=      5-min Rain = 0
KCL2 030534Z 12010KT 26/16 A3006 RMK A01 T02640155  RH  051%=      5-min Rain = 0
KCL2 030535Z 12008KT 26/16 A3006 RMK A01 T02640155  RH  051%=      5-min Rain = 0
KCL2 030536Z 12010KT 26/16 A3006 RMK A01 T02640155  RH  051%=      5-min Rain = 0
KCL2 030537Z 12009KT 26/16 A3006 RMK A01 T02640155  RH  051%=      5-min Rain = 0
KCL2 030538Z 12010KT 26/16 A3006 RMK A01 T02630155  RH  051%=      5-min Rain = 0
KCL2 030539Z 12009KT 26/16 A3006 RMK A01 T02630155  RH  051%=      5-min Rain = 0
KCL2 030540Z 13009KT 26/16 A3006 RMK A01 T02630155  RH  051%=      5-min Rain = 0
KCL2 030541Z 12009KT 26/16 A3006 RMK A01 T02630155  RH  051%=      5-min Rain = 0
KCL2 030542Z 13009KT 26/16 A3006 RMK A01 T02630155  RH  051%=      5-min Rain = 0
KCL2 030543Z 12009KT 26/16 A3006 RMK A01 T02630155  RH  051%=      5-min Rain = 0
KCL2 030544Z 12009KT 26/16 A3006 RMK A01 T02630155  RH  051%=      5-min Rain = 0
KCL2 030545Z 12008KT 26/16 A3006 RMK A01 T02620155  RH  052%=      5-min Rain = 0
KCL2 030546Z 12008KT 26/16 A3006 RMK A01 T02620155  RH  052%=      5-min Rain = 0
KCL2 030547Z 12009KT 26/16 A3006 RMK A01 T02610155  RH  052%=      5-min Rain = 0
KCL2 030548Z 12008KT 26/15 A3006 RMK A01 T02610154  RH  052%=      5-min Rain = 0
KCL2 030549Z 12009KT 26/15 A3006 RMK A01 T02610154  RH  052%=      5-min Rain = 0
KCL2 030550Z 12008KT 26/16 A3006 RMK A01 T02610155  RH  052%=      5-min Rain = 0
KCL2 030551Z 13008KT 26/16 A3006 RMK A01 T02610155  RH  052%=      5-min Rain = 0
KCL2 030552Z 13009KT 26/16 A3006 RMK A01 T02600155  RH  052%=      5-min Rain = 0
KCL2 030553Z 12008KT 26/16 A3006 RMK A01 T02600155  RH  052%=      5-min Rain = 0
KCL2 030554Z 12008KT 26/16 A3006 RMK A01 T02600155  RH  052%=      5-min Rain = 0
KCL2 030555Z 12008KT 26/16 A3006 RMK A01 T02600155  RH  052%=      5-min Rain = 0
KCL2 030556Z 13008KT 26/16 A3006 RMK A01 T02590155  RH  052%=      5-min Rain = 0
KCL2 030557Z 13009KT 26/16 A3006 RMK A01 T02600155  RH  052%=      5-min Rain = 0
KCL2 030558Z 12008KT 26/16 A3006 RMK A01 T02590155  RH  052%=      5-min Rain = 0
KCL2 030559Z 13008KT 26/16 A3006 RMK A01 T02590155  RH  053%=      5-min Rain = 0
KCL2 030600Z 13008KT 26/16 A3006 RMK A01 T02590155  RH  053%=      5-min Rain = 0
KCL2 030601Z 12008KT 26/16 A3006 RMK A01 T02580155  RH  053%=      5-min Rain = 0
KCL2 030602Z 13008KT 26/15 A3006 RMK A01 T02570154  RH  053%=      5-min Rain = 0
KCL2 030603Z 13008KT 26/16 A3006 RMK A01 T02570155  RH  053%=      5-min Rain = 0
KCL2 030604Z 13008KT 26/16 A3006 RMK A01 T02570155  RH  053%=      5-min Rain = 0
KCL2 030605Z 13007KT 26/16 A3006 RMK A01 T02570155  RH  053%=      5-min Rain = 0
KCL2 030606Z 13007KT 26/16 A3006 RMK A01 T02570155  RH  053%=      5-min Rain = 0
KCL2 030607Z 13008KT 26/16 A3006 RMK A01 T02570155  RH  053%=      5-min Rain = 0
KCL2 030608Z 13008KT 26/15 A3006 RMK A01 T02560154  RH  053%=      5-min Rain = 0
KCL2 030609Z 13007KT 26/15 A3006 RMK A01 T02560154  RH  053%=      5-min Rain = 0
KCL2 030610Z 13007KT 26/16 A3006 RMK A01 T02560155  RH  053%=      5-min Rain = 0
KCL2 030611Z 13008KT 26/16 A3006 RMK A01 T02560155  RH  054%=      5-min Rain = 0
KCL2 030612Z 13009KT 26/15 A3006 RMK A01 T02560154  RH  053%=      5-min Rain = 0
KCL2 030613Z 13008KT 26/15 A3006 RMK A01 T02560154  RH  053%=      5-min Rain = 0
KCL2 030614Z 13009KT 26/15 A3006 RMK A01 T02560154  RH  053%=      5-min Rain = 0
KCL2 030615Z 13008KT 26/15 A3006 RMK A01 T02570154  RH  053%=      5-min Rain = 0
KCL2 030616Z 13008KT 26/15 A3006 RMK A01 T02570154  RH  053%=      5-min Rain = 0
KCL2 030617Z 13008KT 26/15 A3006 RMK A01 T02570154  RH  053%=      5-min Rain = 0
KCL2 030618Z 13009KT 26/15 A3006 RMK A01 T02580154  RH  053%=      5-min Rain = 0
KCL2 030619Z 13008KT 26/15 A3006 RMK A01 T02580154  RH  053%=      5-min Rain = 0
KCL2 030620Z 13009KT 26/15 A3006 RMK A01 T02580154  RH  053%=      5-min Rain = 0
KCL2 030621Z 13009KT 26/15 A3006 RMK A01 T02580154  RH  053%=      5-min Rain = 0
KCL2 030622Z 13008KT 26/15 A3006 RMK A01 T02580153  RH  053%=      5-min Rain = 0
KCL2 030623Z 13008KT 26/15 A3006 RMK A01 T02580154  RH  053%=      5-min Rain = 0
KCL2 030624Z 14008KT 26/15 A3006 RMK A01 T02580154  RH  053%=      5-min Rain = 0
KCL2 030625Z 14008KT 26/15 A3006 RMK A01 T02580154  RH  053%=      5-min Rain = 0
KCL2 030626Z 14007KT 26/15 A3006 RMK A01 T02580154  RH  053%=      5-min Rain = 0
KCL2 030627Z 14007KT 26/15 A3006 RMK A01 T02570154  RH  053%=      5-min Rain = 0
KCL2 030628Z 14007KT 26/15 A3006 RMK A01 T02560154  RH  053%=      5-min Rain = 0
KCL2 030629Z 13007KT 26/15 A3006 RMK A01 T02560154  RH  053%=      5-min Rain = 0
KCL2 030630Z 14008KT 26/15 A3006 RMK A01 T02550154  RH  053%=      5-min Rain = 0
KCL2 030631Z 14008KT 26/15 A3007 RMK A01 T02550154  RH  054%=      5-min Rain = 0
KCL2 030632Z 13007KT 25/15 A3007 RMK A01 T02540154  RH  054%=      5-min Rain = 0
KCL2 030633Z 14007KT 26/15 A3007 RMK A01 T02550154  RH  054%=      5-min Rain = 0
KCL2 030634Z 13008KT 26/15 A3007 RMK A01 T02550154  RH  054%=      5-min Rain = 0
KCL2 030635Z 13007KT 26/15 A3007 RMK A01 T02550154  RH  054%=      5-min Rain = 0
KCL2 030636Z 14008KT 26/15 A3007 RMK A01 T02550154  RH  054%=      5-min Rain = 0
KCL2 030637Z 13007KT 25/15 A3007 RMK A01 T02540153  RH  054%=      5-min Rain = 0
KCL2 030638Z 13008KT 25/15 A3007 RMK A01 T02540154  RH  054%=      5-min Rain = 0
KCL2 030639Z 13008KT 25/15 A3007 RMK A01 T02540154  RH  054%=      5-min Rain = 0
KCL2 030640Z 13007KT 25/15 A3007 RMK A01 T02540153  RH  054%=      5-min Rain = 0
KCL2 030641Z 13007KT 25/15 A3007 RMK A01 T02540153  RH  054%=      5-min Rain = 0
KCL2 030642Z 13008KT 25/15 A3007 RMK A01 T02540154  RH  054%=      5-min Rain = 0
KCL2 030643Z 14007KT 25/15 A3007 RMK A01 T02540154  RH  054%=      5-min Rain = 0
KCL2 030644Z 14007KT 25/15 A3007 RMK A01 T02540153  RH  054%=      5-min Rain = 0
KCL2 030645Z 14007KT 25/15 A3007 RMK A01 T02540153  RH  054%=      5-min Rain = 0
KCL2 030646Z 13007KT 25/15 A3007 RMK A01 T02530153  RH  054%=      5-min Rain = 0
KCL2 030647Z 13006KT 25/15 A3007 RMK A01 T02540154  RH  054%=      5-min Rain = 0
KCL2 030648Z 13006KT 25/15 A3007 RMK A01 T02530154  RH  054%=      5-min Rain = 0
KCL2 030649Z 13006KT 25/15 A3007 RMK A01 T02520153  RH  054%=      5-min Rain = 0
KCL2 030650Z 13006KT 25/15 A3007 RMK A01 T02520154  RH  054%=      5-min Rain = 0
KCL2 030651Z 12008KT 25/15 A3007 RMK A01 T02520154  RH  054%=      5-min Rain = 0
KCL2 030652Z 12007KT 25/15 A3007 RMK A01 T02520153  RH  054%=      5-min Rain = 0
KCL2 030653Z 13007KT 25/15 A3007 RMK A01 T02520153  RH  054%=      5-min Rain = 0
KCL2 030654Z 13007KT 25/15 A3007 RMK A01 T02510154  RH  055%=      5-min Rain = 0
KCL2 030655Z 13006KT 25/15 A3007 RMK A01 T02510154  RH  055%=      5-min Rain = 0
KCL2 030656Z 13007KT 25/15 A3007 RMK A01 T02500153  RH  055%=      5-min Rain = 0
KCL2 030657Z 13007KT 25/15 A3007 RMK A01 T02500153  RH  055%=      5-min Rain = 0
KCL2 030658Z 13007KT 25/15 A3007 RMK A01 T02500153  RH  055%=      5-min Rain = 0
KCL2 030659Z 13007KT 25/15 A3007 RMK A01 T02500153  RH  055%=      5-min Rain = 0
KCL2 030700Z 13007KT 25/15 A3007 RMK A01 T02500153  RH  055%=      5-min Rain = 0
KCL2 030701Z 12008KT 25/15 A3006 RMK A01 T02510153  RH  055%=      5-min Rain = 0
KCL2 030702Z 12007KT 25/15 A3006 RMK A01 T02510154  RH  055%=      5-min Rain = 0
KCL2 030703Z 13007KT 25/15 A3006 RMK A01 T02500153  RH  055%=      5-min Rain = 0
KCL2 030704Z 13007KT 25/15 A3007 RMK A01 T02500153  RH  055%=      5-min Rain = 0
KCL2 030705Z 13007KT 25/15 A3007 RMK A01 T02500153  RH  055%=      5-min Rain = 0
KCL2 030706Z 13007KT 25/15 A3007 RMK A01 T02500153  RH  055%=      5-min Rain = 0
KCL2 030707Z 12008KT 25/15 A3007 RMK A01 T02500153  RH  055%=      5-min Rain = 0
KCL2 030708Z 12007KT 25/15 A3007 RMK A01 T02510153  RH  055%=      5-min Rain = 0
KCL2 030709Z 12007KT 25/15 A3007 RMK A01 T02500153  RH  055%=      5-min Rain = 0
KCL2 030710Z 13006KT 25/15 A3007 RMK A01 T02500153  RH  055%=      5-min Rain = 0
KCL2 030711Z 14007KT 25/15 A3007 RMK A01 T02500153  RH  055%=      5-min Rain = 0
KCL2 030712Z 13007KT 25/15 A3007 RMK A01 T02500153  RH  055%=      5-min Rain = 0
KCL2 030713Z 14007KT 25/15 A3007 RMK A01 T02490153  RH  055%=      5-min Rain = 0
KCL2 030714Z 13006KT 25/15 A3007 RMK A01 T02490153  RH  055%=      5-min Rain = 0
KCL2 030715Z 13007KT 25/15 A3007 RMK A01 T02490153  RH  055%=      5-min Rain = 0
KCL2 030716Z 13006KT 25/15 A3007 RMK A01 T02490153  RH  055%=      5-min Rain = 0
KCL2 030717Z 13006KT 25/15 A3007 RMK A01 T02490153  RH  055%=      5-min Rain = 0
KCL2 030718Z 14007KT 25/15 A3007 RMK A01 T02480153  RH  055%=      5-min Rain = 0
KCL2 030719Z 14007KT 25/15 A3007 RMK A01 T02490153  RH  055%=      5-min Rain = 0
KCL2 030720Z 14006KT 25/15 A3007 RMK A01 T02490153  RH  055%=      5-min Rain = 0
KCL2 030721Z 13006KT 25/15 A3007 RMK A01 T02490153  RH  055%=      5-min Rain = 0
KCL2 030722Z 12006KT 25/15 A3007 RMK A01 T02490153  RH  055%=      5-min Rain = 0
KCL2 030723Z 12007KT 25/15 A3007 RMK A01 T02490153  RH  055%=      5-min Rain = 0
KCL2 030724Z 12007KT 25/15 A3007 RMK A01 T02480153  RH  055%=      5-min Rain = 0
KCL2 030725Z 13007KT 25/15 A3007 RMK A01 T02490153  RH  055%=      5-min Rain = 0
KCL2 030726Z 13007KT 25/15 A3007 RMK A01 T02480153  RH  056%=      5-min Rain = 0
KCL2 030727Z 13007KT 25/15 A3007 RMK A01 T02480153  RH  056%=      5-min Rain = 0
KCL2 030728Z 13006KT 25/15 A3007 RMK A01 T02480153  RH  055%=      5-min Rain = 0
KCL2 030729Z 13006KT 25/15 A3007 RMK A01 T02480153  RH  055%=      5-min Rain = 0
KCL2 030730Z 14005KT 25/15 A3007 RMK A01 T02480153  RH  055%=      5-min Rain = 0
KCL2 030731Z 13007KT 25/15 A3007 RMK A01 T02480153  RH  055%=      5-min Rain = 0
KCL2 030732Z 13006KT 25/15 A3007 RMK A01 T02480152  RH  055%=      5-min Rain = 0
KCL2 030733Z 13005KT 25/15 A3007 RMK A01 T02480153  RH  055%=      5-min Rain = 0
KCL2 030734Z 13006KT 25/15 A3007 RMK A01 T02480153  RH  056%=      5-min Rain = 0
KCL2 030735Z 13005KT 25/15 A3007 RMK A01 T02480153  RH  056%=      5-min Rain = 0
KCL2 030736Z 13005KT 25/15 A3007 RMK A01 T02470153  RH  056%=      5-min Rain = 0
KCL2 030737Z 12006KT 25/15 A3007 RMK A01 T02460153  RH  056%=      5-min Rain = 0
KCL2 030738Z 12005KT 25/15 A3007 RMK A01 T02460152  RH  056%=      5-min Rain = 0
KCL2 030739Z 13005KT 25/15 A3007 RMK A01 T02460152  RH  056%=      5-min Rain = 0
KCL2 030740Z 13006KT 25/15 A3007 RMK A01 T02460153  RH  056%=      5-min Rain = 0
KCL2 030741Z 12006KT 25/15 A3007 RMK A01 T02460153  RH  056%=      5-min Rain = 0
KCL2 030742Z 13005KT 25/15 A3007 RMK A01 T02460153  RH  056%=      5-min Rain = 0
KCL2 030743Z 12005KT 25/15 A3007 RMK A01 T02460153  RH  056%=      5-min Rain = 0
KCL2 030744Z 12006KT 25/15 A3007 RMK A01 T02460153  RH  056%=      5-min Rain = 0
KCL2 030745Z 12005KT 25/15 A3007 RMK A01 T02450153  RH  056%=      5-min Rain = 0
KCL2 030746Z 12006KT 25/15 A3007 RMK A01 T02450153  RH  056%=      5-min Rain = 0
KCL2 030747Z 12006KT 25/15 A3007 RMK A01 T02450153  RH  056%=      5-min Rain = 0
KCL2 030748Z 12005KT 25/15 A3007 RMK A01 T02450153  RH  057%=      5-min Rain = 0
KCL2 030749Z 11005KT 25/15 A3007 RMK A01 T02450153  RH  057%=      5-min Rain = 0
KCL2 030750Z 12005KT 25/15 A3007 RMK A01 T02450153  RH  057%=      5-min Rain = 0
KCL2 030751Z 12005KT 25/15 A3007 RMK A01 T02450153  RH  057%=      5-min Rain = 0
KCL2 030752Z 11004KT 25/15 A3007 RMK A01 T02450153  RH  057%=      5-min Rain = 0
KCL2 030753Z 11004KT 25/15 A3007 RMK A01 T02450153  RH  056%=      5-min Rain = 0
KCL2 030754Z 11004KT 25/15 A3007 RMK A01 T02450153  RH  056%=      5-min Rain = 0
KCL2 030755Z 11004KT 25/15 A3007 RMK A01 T02450153  RH  056%=      5-min Rain = 0
KCL2 030756Z 11003KT 25/15 A3007 RMK A01 T02460153  RH  056%=      5-min Rain = 0
KCL2 030757Z 10005KT 25/15 A3007 RMK A01 T02460153  RH  056%=      5-min Rain = 0
KCL2 030758Z 11004KT 25/15 A3007 RMK A01 T02460153  RH  056%=      5-min Rain = 0
KCL2 030759Z 11004KT 25/15 A3007 RMK A01 T02460153  RH  056%=      5-min Rain = 0
KCL2 030800Z 11004KT 25/15 A3007 RMK A01 T02460153  RH  056%=      5-min Rain = 0
KCL2 030801Z 11004KT 25/15 A3007 RMK A01 T02460154  RH  056%=      5-min Rain = 0
KCL2 030802Z 11004KT 25/15 A3007 RMK A01 T02460154  RH  056%=      5-min Rain = 0
KCL2 030803Z 11004KT 25/15 A3007 RMK A01 T02460154  RH  056%=      5-min Rain = 0
KCL2 030804Z 11005KT 25/15 A3007 RMK A01 T02460153  RH  056%=      5-min Rain = 0
KCL2 030805Z 11004KT 25/15 A3007 RMK A01 T02460153  RH  056%=      5-min Rain = 0
KCL2 030806Z 11004KT 25/15 A3007 RMK A01 T02470154  RH  056%=      5-min Rain = 0
KCL2 030807Z 11004KT 25/15 A3007 RMK A01 T02470153  RH  056%=      5-min Rain = 0
KCL2 030808Z 11004KT 25/15 A3007 RMK A01 T02470153  RH  056%=      5-min Rain = 0
KCL2 030809Z 11004KT 25/15 A3007 RMK A01 T02470154  RH  056%=      5-min Rain = 0
KCL2 030810Z 11004KT 25/15 A3007 RMK A01 T02470154  RH  056%=      5-min Rain = 0
KCL2 030811Z 11004KT 25/15 A3007 RMK A01 T02470154  RH  056%=      5-min Rain = 0
KCL2 030812Z 10004KT 25/15 A3007 RMK A01 T02470154  RH  056%=      5-min Rain = 0
KCL2 030813Z 10003KT 25/15 A3008 RMK A01 T02470154  RH  056%=      5-min Rain = 0
KCL2 030814Z 10004KT 25/15 A3008 RMK A01 T02470153  RH  056%=      5-min Rain = 0
KCL2 030815Z 11003KT 25/15 A3008 RMK A01 T02470153  RH  056%=      5-min Rain = 0
KCL2 030816Z 10003KT 25/15 A3008 RMK A01 T02470153  RH  056%=      5-min Rain = 0
KCL2 030817Z 11003KT 25/15 A3008 RMK A01 T02470153  RH  056%=      5-min Rain = 0
KCL2 030818Z 10003KT 25/15 A3008 RMK A01 T02480153  RH  056%=      5-min Rain = 0
KCL2 030819Z 11003KT 25/15 A3008 RMK A01 T02480153  RH  056%=      5-min Rain = 0
KCL2 030820Z 11003KT 25/15 A3008 RMK A01 T02480153  RH  056%=      5-min Rain = 0
KCL2 030821Z 11003KT 25/15 A3008 RMK A01 T02480152  RH  055%=      5-min Rain = 0
KCL2 030822Z 12003KT 25/15 A3008 RMK A01 T02490153  RH  055%=      5-min Rain = 0
KCL2 030823Z 12003KT 25/15 A3008 RMK A01 T02480153  RH  055%=      5-min Rain = 0
KCL2 030824Z 12003KT 25/15 A3008 RMK A01 T02490153  RH  055%=      5-min Rain = 0
KCL2 030825Z 12003KT 25/15 A3008 RMK A01 T02490153  RH  055%=      5-min Rain = 0
KCL2 030826Z 12003KT 25/15 A3008 RMK A01 T02490153  RH  055%=      5-min Rain = 0
KCL2 030827Z 12003KT 25/15 A3008 RMK A01 T02490153  RH  055%=      5-min Rain = 0
KCL2 030828Z 12003KT 25/15 A3008 RMK A01 T02490154  RH  055%=      5-min Rain = 0
KCL2 030829Z 13003KT 25/15 A3008 RMK A01 T02490154  RH  056%=      5-min Rain = 0
KCL2 030830Z 13003KT 25/16 A3009 RMK A01 T02490155  RH  056%=      5-min Rain = 0
KCL2 030831Z 14003KT 25/15 A3009 RMK A01 T02480154  RH  056%=      5-min Rain = 0
KCL2 030832Z 14003KT 25/15 A3009 RMK A01 T02480154  RH  056%=      5-min Rain = 0
KCL2 030833Z 14002KT 25/16 A3009 RMK A01 T02480155  RH  056%=      5-min Rain = 0
KCL2 030834Z 14002KT 25/16 A3009 RMK A01 T02470155  RH  057%=      5-min Rain = 0
KCL2 030835Z 14002KT 25/16 A3009 RMK A01 T02460155  RH  057%=      5-min Rain = 0
KCL2 030836Z 14002KT 25/15 A3009 RMK A01 T02460154  RH  057%=      5-min Rain = 0
KCL2 030837Z 14002KT 25/15 A3009 RMK A01 T02460153  RH  056%=      5-min Rain = 0
KCL2 030838Z 14002KT 25/15 A3009 RMK A01 T02460153  RH  056%=      5-min Rain = 0
KCL2 030839Z 14002KT 25/15 A3009 RMK A01 T02460153  RH  056%=      5-min Rain = 0
KCL2 030840Z 14002KT 25/15 A3009 RMK A01 T02460153  RH  056%=      5-min Rain = 0
KCL2 030841Z 13002KT 25/15 A3009 RMK A01 T02460154  RH  056%=      5-min Rain = 0
KCL2 030842Z 13003KT 25/15 A3009 RMK A01 T02470154  RH  056%=      5-min Rain = 0
KCL2 030843Z 13003KT 25/15 A3009 RMK A01 T02470154  RH  056%=      5-min Rain = 0
KCL2 030844Z 12003KT 25/15 A3009 RMK A01 T02470154  RH  056%=      5-min Rain = 0
KCL2 030845Z 12003KT 25/15 A3009 RMK A01 T02480153  RH  056%=      5-min Rain = 0
KCL2 030846Z 12002KT 25/15 A3009 RMK A01 T02470154  RH  056%=      5-min Rain = 0
KCL2 030847Z 12003KT 25/15 A3009 RMK A01 T02480154  RH  056%=      5-min Rain = 0
KCL2 030848Z 12003KT 25/15 A3009 RMK A01 T02480154  RH  056%=      5-min Rain = 0
KCL2 030849Z 12003KT 25/15 A3009 RMK A01 T02480154  RH  056%=      5-min Rain = 0
KCL2 030850Z 12003KT 25/15 A3009 RMK A01 T02480154  RH  056%=      5-min Rain = 0
KCL2 030851Z 12003KT 25/16 A3009 RMK A01 T02480155  RH  056%=      5-min Rain = 0
KCL2 030852Z 11003KT 25/16 A3009 RMK A01 T02480156  RH  056%=      5-min Rain = 0
KCL2 030853Z 11003KT 25/16 A3009 RMK A01 T02480155  RH  056%=      5-min Rain = 0
KCL2 030854Z 11003KT 25/16 A3009 RMK A01 T02480156  RH  057%=      5-min Rain = 0
KCL2 030855Z 11004KT 25/16 A3008 RMK A01 T02480156  RH  057%=      5-min Rain = 0
KCL2 030856Z 11004KT 25/16 A3008 RMK A01 T02480157  RH  057%=      5-min Rain = 0
KCL2 030857Z 11004KT 25/16 A3008 RMK A01 T02480159  RH  057%=      5-min Rain = 0
KCL2 030858Z 10004KT 25/16 A3008 RMK A01 T02480159  RH  058%=      5-min Rain = 0
KCL2 030859Z 11004KT 25/16 A3008 RMK A01 T02470160  RH  058%=      5-min Rain = 0
KCL2 030900Z 10004KT 25/16 A3008 RMK A01 T02470159  RH  058%=      5-min Rain = 0
KCL2 030901Z 11004KT 25/16 A3008 RMK A01 T02470158  RH  058%=      5-min Rain = 0
KCL2 030902Z 11004KT 25/16 A3008 RMK A01 T02470157  RH  058%=      5-min Rain = 0
KCL2 030903Z 11004KT 25/16 A3008 RMK A01 T02470156  RH  057%=      5-min Rain = 0
KCL2 030904Z 10005KT 25/16 A3008 RMK A01 T02470156  RH  057%=      5-min Rain = 0
KCL2 030905Z 11005KT 25/16 A3008 RMK A01 T02480156  RH  057%=      5-min Rain = 0
KCL2 030906Z 11005KT 25/16 A3008 RMK A01 T02480156  RH  057%=      5-min Rain = 0
KCL2 030907Z 11005KT 25/16 A3008 RMK A01 T02490156  RH  056%=      5-min Rain = 0
KCL2 030908Z 11005KT 25/16 A3008 RMK A01 T02490156  RH  056%=      5-min Rain = 0
KCL2 030909Z 11005KT 25/16 A3008 RMK A01 T02490157  RH  056%=      5-min Rain = 0
KCL2 030910Z 11005KT 25/16 A3008 RMK A01 T02500157  RH  056%=      5-min Rain = 0
KCL2 030911Z 11005KT 25/16 A3008 RMK A01 T02490157  RH  056%=      5-min Rain = 0
KCL2 030912Z 11005KT 25/16 A3008 RMK A01 T02490157  RH  057%=      5-min Rain = 0
KCL2 030913Z 11005KT 25/16 A3008 RMK A01 T02490157  RH  056%=      5-min Rain = 0
KCL2 030914Z 11005KT 25/16 A3008 RMK A01 T02500157  RH  056%=      5-min Rain = 0
KCL2 030915Z 11005KT 25/16 A3008 RMK A01 T02500157  RH  056%=      5-min Rain = 0
KCL2 030916Z 11005KT 25/16 A3008 RMK A01 T02500157  RH  056%=      5-min Rain = 0
KCL2 030917Z 11005KT 25/16 A3008 RMK A01 T02500157  RH  056%=      5-min Rain = 0
KCL2 030918Z 11005KT 25/16 A3008 RMK A01 T02510157  RH  056%=      5-min Rain = 0
KCL2 030919Z 11004KT 25/16 A3008 RMK A01 T02510158  RH  056%=      5-min Rain = 0
KCL2 030920Z 11005KT 25/16 A3008 RMK A01 T02510158  RH  056%=      5-min Rain = 0
KCL2 030921Z 11004KT 25/16 A3008 RMK A01 T02510158  RH  056%=      5-min Rain = 0
KCL2 030922Z 12004KT 25/16 A3008 RMK A01 T02510158  RH  056%=      5-min Rain = 0
KCL2 030923Z 23002G7KT 25/16 A3008 RMK A01 T02520159  RH  056%=      5-min Rain = 0
KCL2 030924Z 28011KT 25/16 A3009 RMK A01 T02500161  RH  058%=      5-min Rain = 0
KCL2 030925Z 27008KT 25/16 A3009 RMK A01 T02470159  RH  058%=      5-min Rain = 0
KCL2 030926Z 27012G17KT 25/16 A3009 RMK A01 T02450158  RH  058%=      5-min Rain = 0
KCL2 030927Z 27011KT 25/16 A3009 RMK A01 T02450157  RH  058%=      5-min Rain = 0
KCL2 030928Z 28008KT 25/16 A3009 RMK A01 T02460156  RH  057%=      5-min Rain = 0
KCL2 030929Z 27008KT 25/16 A3009 RMK A01 T02470157  RH  057%=      5-min Rain = 0
KCL2 030930Z 27009KT 25/16 A3009 RMK A01 T02470156  RH  057%=      5-min Rain = 0
KCL2 030931Z 27008KT 25/16 A3009 RMK A01 T02470156  RH  057%=      5-min Rain = 0
KCL2 030932Z 27009KT 25/16 A3009 RMK A01 T02470156  RH  057%=      5-min Rain = 0
KCL2 030933Z 27008KT 25/16 A3009 RMK A01 T02470156  RH  057%=      5-min Rain = 0
KCL2 030934Z 27008KT 25/16 A3009 RMK A01 T02460156  RH  057%=      5-min Rain = 0
KCL2 030935Z 28006KT 25/16 A3009 RMK A01 T02460157  RH  057%=      5-min Rain = 0
KCL2 030936Z 28005KT 25/16 A3009 RMK A01 T02460157  RH  058%=      5-min Rain = 0
KCL2 030937Z 28004KT 25/16 A3009 RMK A01 T02450157  RH  058%=      5-min Rain = 0
KCL2 030938Z 29004KT 24/16 A301 RMK A01 T02440157  RH  058%=      5-min Rain = 0
KCL2 030939Z 29005KT 24/16 A301 RMK A01 T02430157  RH  059%=      5-min Rain = 0
KCL2 030940Z 29004KT 24/16 A301 RMK A01 T02430157  RH  059%=      5-min Rain = 0
KCL2 030941Z 30004KT 24/16 A301 RMK A01 T02420158  RH  059%=      5-min Rain = 0
KCL2 030942Z 30004KT 24/16 A301 RMK A01 T02420159  RH  060%=      5-min Rain = 0
KCL2 030943Z 30004KT 24/16 A301 RMK A01 T02410158  RH  060%=      5-min Rain = 0
KCL2 030944Z 30004KT 24/16 A301 RMK A01 T02410158  RH  060%=      5-min Rain = 0
KCL2 030945Z 31004KT 24/16 A301 RMK A01 T02410158  RH  060%=      5-min Rain = 0
KCL2 030946Z 32004KT 24/16 A301 RMK A01 T02410158  RH  060%=      5-min Rain = 0
KCL2 030947Z 32004KT 24/16 A301 RMK A01 T02410158  RH  060%=      5-min Rain = 0
KCL2 030948Z 32004KT 24/16 A301 RMK A01 T02410158  RH  060%=      5-min Rain = 0
KCL2 030949Z 32004KT 24/16 A301 RMK A01 T02410158  RH  060%=      5-min Rain = 0
KCL2 030950Z 32004KT 24/16 A301 RMK A01 T02410158  RH  060%=      5-min Rain = 0
KCL2 030951Z 32005KT 24/16 A301 RMK A01 T02410158  RH  060%=      5-min Rain = 0
KCL2 030952Z 32004KT 24/16 A301 RMK A01 T02410158  RH  060%=      5-min Rain = 0
KCL2 030953Z 32003KT 24/16 A301 RMK A01 T02410159  RH  060%=      5-min Rain = 0
KCL2 030954Z 33003KT 24/16 A301 RMK A01 T02410158  RH  060%=      5-min Rain = 0
KCL2 030955Z 34003KT 24/16 A301 RMK A01 T02410159  RH  060%=      5-min Rain = 0
KCL2 030956Z 34003KT 24/16 A3009 RMK A01 T02410160  RH  060%=      5-min Rain = 0
KCL2 030957Z 33004KT 24/16 A3009 RMK A01 T02410159  RH  060%=      5-min Rain = 0
KCL2 030958Z 32004KT 24/16 A301 RMK A01 T02400158  RH  060%=      5-min Rain = 0
KCL2 030959Z 32004KT 24/16 A301 RMK A01 T02400159  RH  060%=      5-min Rain = 0
KCL2 031000Z 33003KT 24/16 A3009 RMK A01 T02400158  RH  060%=      5-min Rain = 0
KCL2 031001Z 33003KT 24/16 A3009 RMK A01 T02410158  RH  060%=      5-min Rain = 0
KCL2 031002Z 32003KT 24/16 A3009 RMK A01 T02410157  RH  060%=      5-min Rain = 0
KCL2 031003Z 31003KT 24/16 A3009 RMK A01 T02410158  RH  060%=      5-min Rain = 0
KCL2 031004Z 31003KT 24/16 A3009 RMK A01 T02410159  RH  060%=      5-min Rain = 0
KCL2 031005Z 30003KT 24/16 A3009 RMK A01 T02410159  RH  060%=      5-min Rain = 0
KCL2 031006Z 30004KT 24/16 A3009 RMK A01 T02410159  RH  060%=      5-min Rain = 0
KCL2 031007Z 29004KT 24/16 A301 RMK A01 T02400159  RH  061%=      5-min Rain = 0
KCL2 031008Z 29004KT 24/16 A301 RMK A01 T02400160  RH  061%=      5-min Rain = 0
KCL2 031009Z 29004KT 24/16 A301 RMK A01 T02390160  RH  061%=      5-min Rain = 0
KCL2 031010Z 27005KT 24/16 A301 RMK A01 T02390160  RH  061%=      5-min Rain = 0
KCL2 031011Z 27006KT 24/16 A301 RMK A01 T02380161  RH  062%=      5-min Rain = 0
KCL2 031012Z 27006KT 24/16 A301 RMK A01 T02370161  RH  062%=      5-min Rain = 0
KCL2 031013Z 27005KT 24/16 A301 RMK A01 T02360160  RH  063%=      5-min Rain = 0
KCL2 031014Z 27005KT 24/16 A301 RMK A01 T02360161  RH  063%=      5-min Rain = 0
KCL2 031015Z 27005KT 24/16 A301 RMK A01 T02350161  RH  063%=      5-min Rain = 0
KCL2 031016Z 28005KT 24/16 A301 RMK A01 T02350161  RH  063%=      5-min Rain = 0
KCL2 031017Z 28006KT 24/16 A301 RMK A01 T02350160  RH  063%=      5-min Rain = 0
KCL2 031018Z 28005KT 24/16 A301 RMK A01 T02360160  RH  062%=      5-min Rain = 0
KCL2 031019Z 29006KT 24/16 A301 RMK A01 T02360160  RH  062%=      5-min Rain = 0
KCL2 031020Z 29006KT 24/16 A301 RMK A01 T02360159  RH  062%=      5-min Rain = 0
KCL2 031021Z 29006KT 24/16 A301 RMK A01 T02370159  RH  062%=      5-min Rain = 0
KCL2 031022Z 29007KT 24/16 A301 RMK A01 T02370159  RH  061%=      5-min Rain = 0
KCL2 031023Z 29006KT 24/16 A301 RMK A01 T02380159  RH  061%=      5-min Rain = 0
KCL2 031024Z 30008KT 24/16 A301 RMK A01 T02380160  RH  061%=      5-min Rain = 0
KCL2 031025Z 30007KT 24/16 A301 RMK A01 T02380159  RH  061%=      5-min Rain = 0
KCL2 031026Z 31008KT 24/16 A301 RMK A01 T02380159  RH  061%=      5-min Rain = 0
KCL2 031027Z 30007KT 24/16 A3009 RMK A01 T02380159  RH  061%=      5-min Rain = 0
KCL2 031028Z 31007KT 24/16 A3009 RMK A01 T02390159  RH  061%=      5-min Rain = 0
KCL2 031029Z 31008KT 24/16 A3009 RMK A01 T02390159  RH  061%=      5-min Rain = 0
KCL2 031030Z 31006KT 24/16 A3009 RMK A01 T02390159  RH  061%=      5-min Rain = 0
KCL2 031031Z 31006KT 24/16 A3009 RMK A01 T02390160  RH  061%=      5-min Rain = 0
KCL2 031032Z 31005KT 24/16 A3009 RMK A01 T02380160  RH  061%=      5-min Rain = 0
KCL2 031033Z 31006KT 24/16 A3009 RMK A01 T02370160  RH  062%=      5-min Rain = 0
KCL2 031034Z 31006KT 24/16 A3009 RMK A01 T02370159  RH  062%=      5-min Rain = 0
KCL2 031035Z 30007KT 24/16 A3009 RMK A01 T02370159  RH  062%=      5-min Rain = 0
KCL2 031036Z 30006KT 24/16 A3009 RMK A01 T02360159  RH  062%=      5-min Rain = 0
KCL2 031037Z 30007KT 24/16 A3009 RMK A01 T02370159  RH  062%=      5-min Rain = 0
KCL2 031038Z 30006KT 24/16 A3009 RMK A01 T02370159  RH  062%=      5-min Rain = 0
KCL2 031039Z 29006KT 24/16 A3009 RMK A01 T02360159  RH  062%=      5-min Rain = 0
KCL2 031040Z 30005KT 24/16 A3009 RMK A01 T02360159  RH  062%=      5-min Rain = 0
KCL2 031041Z 30005KT 24/16 A3009 RMK A01 T02350159  RH  062%=      5-min Rain = 0
KCL2 031042Z 30005KT 24/16 A3009 RMK A01 T02350159  RH  063%=      5-min Rain = 0
KCL2 031043Z 30004KT 23/16 A3009 RMK A01 T02340159  RH  063%=      5-min Rain = 0
KCL2 031044Z 30005KT 23/16 A3009 RMK A01 T02340160  RH  063%=      5-min Rain = 0
KCL2 031045Z 30004KT 23/16 A3009 RMK A01 T02330159  RH  063%=      5-min Rain = 0
KCL2 031046Z 30003KT 23/16 A3009 RMK A01 T02330160  RH  063%=      5-min Rain = 0
KCL2 031047Z 29004KT 23/16 A3009 RMK A01 T02330160  RH  064%=      5-min Rain = 0
KCL2 031048Z 30004KT 23/16 A301 RMK A01 T02320160  RH  064%=      5-min Rain = 0
KCL2 031049Z 30004KT 23/16 A301 RMK A01 T02310160  RH  064%=      5-min Rain = 0
KCL2 031050Z 29004KT 23/16 A301 RMK A01 T02310160  RH  064%=      5-min Rain = 0
KCL2 031051Z 29005KT 23/16 A301 RMK A01 T02300160  RH  065%=      5-min Rain = 0
KCL2 031052Z 29004KT 23/16 A301 RMK A01 T02300160  RH  065%=      5-min Rain = 0
KCL2 031053Z 29005KT 23/16 A301 RMK A01 T02300161  RH  065%=      5-min Rain = 0
KCL2 031054Z 29005KT 23/16 A301 RMK A01 T02300162  RH  066%=      5-min Rain = 0
KCL2 031055Z 29005KT 23/16 A301 RMK A01 T02290163  RH  066%=      5-min Rain = 0
KCL2 031056Z 30005KT 23/16 A301 RMK A01 T02290163  RH  066%=      5-min Rain = 0
KCL2 031057Z 29005KT 23/16 A301 RMK A01 T02290164  RH  067%=      5-min Rain = 0
KCL2 031058Z 29005KT 23/16 A301 RMK A01 T02290164  RH  067%=      5-min Rain = 0
KCL2 031059Z 29004KT 23/16 A301 RMK A01 T02280164  RH  067%=      5-min Rain = 0
KCL2 031100Z 29005KT 23/17 A301 RMK A01 T02280165  RH  067%=      5-min Rain = 0
KCL2 031101Z 30005KT 23/17 A301 RMK A01 T02280165  RH  068%=      5-min Rain = 0
KCL2 031102Z 29004KT 23/17 A301 RMK A01 T02280166  RH  068%=      5-min Rain = 0
KCL2 031103Z 29003KT 23/17 A3009 RMK A01 T02270166  RH  068%=      5-min Rain = 0
KCL2 031104Z 29003KT 23/17 A301 RMK A01 T02270165  RH  068%=      5-min Rain = 0
KCL2 031105Z 29003KT 23/17 A301 RMK A01 T02260166  RH  069%=      5-min Rain = 0
KCL2 031106Z 29004KT 23/17 A301 RMK A01 T02250166  RH  069%=      5-min Rain = 0
KCL2 031107Z 29005KT 23/17 A301 RMK A01 T02250166  RH  069%=      5-min Rain = 0
KCL2 031108Z 29004KT 22/17 A301 RMK A01 T02240166  RH  070%=      5-min Rain = 0
KCL2 031109Z 30003KT 22/17 A301 RMK A01 T02240166  RH  070%=      5-min Rain = 0
KCL2 031110Z 30003KT 22/17 A3009 RMK A01 T02240166  RH  070%=      5-min Rain = 0
KCL2 031111Z 31003KT 22/17 A3009 RMK A01 T02240166  RH  070%=      5-min Rain = 0
KCL2 031112Z 31003KT 22/17 A3009 RMK A01 T02230167  RH  070%=      5-min Rain = 0
KCL2 031113Z 31004KT 22/17 A3009 RMK A01 T02230167  RH  070%=      5-min Rain = 0
KCL2 031114Z 32005KT 22/17 A3009 RMK A01 T02230167  RH  071%=      5-min Rain = 0
KCL2 031115Z 32005KT 22/17 A3009 RMK A01 T02220167  RH  071%=      5-min Rain = 0
KCL2 031116Z 33005KT 22/17 A3009 RMK A01 T02220168  RH  071%=      5-min Rain = 0
KCL2 031117Z 33004KT 22/17 A3009 RMK A01 T02220168  RH  071%=      5-min Rain = 0
KCL2 031118Z 34004KT 22/17 A3009 RMK A01 T02220168  RH  072%=      5-min Rain = 0
KCL2 031119Z 34004KT 22/17 A3009 RMK A01 T02210168  RH  072%=      5-min Rain = 0
KCL2 031120Z 34004KT 22/17 A3009 RMK A01 T02210168  RH  072%=      5-min Rain = 0
KCL2 031121Z 33003KT 22/17 A3009 RMK A01 T02210168  RH  072%=      5-min Rain = 0
KCL2 031122Z 33003KT 22/17 A3009 RMK A01 T02210168  RH  072%=      5-min Rain = 0
KCL2 031123Z 33003KT 22/17 A3009 RMK A01 T02210168  RH  072%=      5-min Rain = 0
KCL2 031124Z 33003KT 22/17 A3009 RMK A01 T02210168  RH  072%=      5-min Rain = 0
KCL2 031125Z 32003KT 22/17 A3009 RMK A01 T02210168  RH  072%=      5-min Rain = 0
KCL2 031126Z 32004KT 22/17 A301 RMK A01 T02200168  RH  072%=      5-min Rain = 0
KCL2 031127Z 32004KT 22/17 A301 RMK A01 T02190168  RH  073%=      5-min Rain = 0
KCL2 031128Z 33004KT 22/17 A301 RMK A01 T02190168  RH  073%=      5-min Rain = 0
KCL2 031129Z 34004KT 22/17 A301 RMK A01 T02190168  RH  073%=      5-min Rain = 0
KCL2 031130Z 34004KT 22/17 A301 RMK A01 T02190168  RH  073%=      5-min Rain = 0
KCL2 031131Z 34004KT 22/17 A3009 RMK A01 T02180168  RH  073%=      5-min Rain = 0
KCL2 031132Z 33005KT 22/17 A3009 RMK A01 T02180168  RH  073%=      5-min Rain = 0
KCL2 031133Z 34004KT 22/17 A3009 RMK A01 T02180168  RH  073%=      5-min Rain = 0
KCL2 031134Z 34005KT 22/17 A3009 RMK A01 T02180168  RH  073%=      5-min Rain = 0
KCL2 031135Z 35005KT 22/17 A3009 RMK A01 T02180168  RH  073%=      5-min Rain = 0
KCL2 031136Z 35004KT 22/17 A3009 RMK A01 T02180168  RH  073%=      5-min Rain = 0
KCL2 031137Z 35004KT 22/17 A3009 RMK A01 T02180168  RH  073%=      5-min Rain = 0
KCL2 031138Z 35004KT 22/17 A3009 RMK A01 T02180168  RH  073%=      5-min Rain = 0
KCL2 031139Z 34004KT 22/17 A3009 RMK A01 T02180168  RH  073%=      5-min Rain = 0
KCL2 031140Z 34004KT 22/17 A3009 RMK A01 T02180168  RH  073%=      5-min Rain = 0
KCL2 031141Z 34004KT 22/17 A3009 RMK A01 T02180167  RH  073%=      5-min Rain = 0
KCL2 031142Z 34005KT 22/17 A3009 RMK A01 T02180168  RH  073%=      5-min Rain = 0
KCL2 031143Z 33004KT 22/17 A3009 RMK A01 T02190168  RH  073%=      5-min Rain = 0
KCL2 031144Z 33004KT 22/17 A3009 RMK A01 T02190169  RH  073%=      5-min Rain = 0
KCL2 031145Z 33004KT 22/17 A3009 RMK A01 T02190169  RH  073%=      5-min Rain = 0
KCL2 031146Z 33005KT 22/17 A3009 RMK A01 T02180169  RH  073%=      5-min Rain = 0
KCL2 031147Z 33004KT 22/17 A3009 RMK A01 T02180169  RH  074%=      5-min Rain = 0
KCL2 031148Z 33004KT 22/17 A3009 RMK A01 T02170169  RH  074%=      5-min Rain = 0
KCL2 031149Z 33004KT 22/17 A3009 RMK A01 T02170169  RH  074%=      5-min Rain = 0
KCL2 031150Z 33005KT 22/17 A3009 RMK A01 T02170169  RH  074%=      5-min Rain = 0
KCL2 031151Z 33004KT 22/17 A3009 RMK A01 T02170170  RH  075%=      5-min Rain = 0
KCL2 031152Z 33004KT 22/17 A3009 RMK A01 T02160170  RH  075%=      5-min Rain = 0
KCL2 031153Z 33004KT 22/17 A3009 RMK A01 T02160170  RH  075%=      5-min Rain = 0
KCL2 031154Z 33003KT 22/17 A3009 RMK A01 T02160170  RH  075%=      5-min Rain = 0
KCL2 031155Z 33003KT 22/17 A3009 RMK A01 T02160170  RH  075%=      5-min Rain = 0
KCL2 031156Z 32002KT 22/17 A3009 RMK A01 T02160171  RH  075%=      5-min Rain = 0
KCL2 031157Z 31002KT 22/17 A3009 RMK A01 T02160170  RH  075%=      5-min Rain = 0
KCL2 031158Z 30002KT 22/17 A301 RMK A01 T02160170  RH  075%=      5-min Rain = 0
KCL2 031159Z 29002KT 22/17 A301 RMK A01 T02160171  RH  075%=      5-min Rain = 0
KCL2 031200Z 28003KT 22/17 A301 RMK A01 T02150171  RH  076%=      5-min Rain = 0
KCL2 031201Z 28003KT 22/17 A301 RMK A01 T02150171  RH  076%=      5-min Rain = 0
KCL2 031202Z 28003KT 21/17 A301 RMK A01 T02140171  RH  076%=      5-min Rain = 0
KCL2 031203Z 28003KT 21/17 A301 RMK A01 T02130171  RH  077%=      5-min Rain = 0
KCL2 031204Z 28003KT 21/17 A301 RMK A01 T02130171  RH  077%=      5-min Rain = 0
KCL2 031205Z 28003KT 21/17 A301 RMK A01 T02120171  RH  077%=      5-min Rain = 0
KCL2 031206Z 29003KT 21/17 A301 RMK A01 T02120170  RH  077%=      5-min Rain = 0
KCL2 031207Z 29003KT 21/17 A301 RMK A01 T02110171  RH  078%=      5-min Rain = 0
KCL2 031208Z 30003KT 21/17 A301 RMK A01 T02110171  RH  078%=      5-min Rain = 0
KCL2 031209Z 31003KT 21/17 A301 RMK A01 T02110171  RH  078%=      5-min Rain = 0
KCL2 031210Z 31003KT 21/17 A301 RMK A01 T02110171  RH  078%=      5-min Rain = 0
KCL2 031211Z 31003KT 21/17 A301 RMK A01 T02110171  RH  078%=      5-min Rain = 0
KCL2 031212Z 31003KT 21/17 A301 RMK A01 T02110171  RH  078%=      5-min Rain = 0
KCL2 031213Z 31003KT 21/17 A301 RMK A01 T02110172  RH  078%=      5-min Rain = 0
KCL2 031214Z 30003KT 21/17 A301 RMK A01 T02110172  RH  078%=      5-min Rain = 0
KCL2 031215Z 30002KT 21/17 A301 RMK A01 T02120172  RH  078%=      5-min Rain = 0
KCL2 031216Z 30002KT 21/17 A301 RMK A01 T02120172  RH  078%=      5-min Rain = 0
KCL2 031217Z 30002KT 21/17 A301 RMK A01 T02120172  RH  078%=      5-min Rain = 0
KCL2 031218Z 30002KT 21/17 A3009 RMK A01 T02120172  RH  078%=      5-min Rain = 0
KCL2 031219Z 31001KT 21/17 A3009 RMK A01 T02120172  RH  078%=      5-min Rain = 0
KCL2 031220Z 31001KT 21/17 A3009 RMK A01 T02120172  RH  078%=      5-min Rain = 0
KCL2 031221Z 32001KT 21/17 A3009 RMK A01 T02130173  RH  078%=      5-min Rain = 0
KCL2 031222Z 32000KT 21/17 A3009 RMK A01 T02130174  RH  078%=      5-min Rain = 0
KCL2 031223Z 00000KT 21/18 A3009 RMK A01 T02140175  RH  079%=      5-min Rain = 0
KCL2 031224Z 00000KT 21/18 A3009 RMK A01 T02140175  RH  078%=      5-min Rain = 0
KCL2 031225Z 00000KT 22/18 A301 RMK A01 T02150175  RH  078%=      5-min Rain = 0
KCL2 031226Z 00000KT 22/18 A301 RMK A01 T02150175  RH  078%=      5-min Rain = 0
KCL2 031227Z 00000KT 22/18 A301 RMK A01 T02150175  RH  077%=      5-min Rain = 0
KCL2 031228Z 00000KT 22/17 A301 RMK A01 T02150174  RH  077%=      5-min Rain = 0
KCL2 031229Z 32000KT 22/18 A301 RMK A01 T02160175  RH  077%=      5-min Rain = 0
KCL2 031230Z 31001KT 22/18 A301 RMK A01 T02160176  RH  078%=      5-min Rain = 0
KCL2 031231Z 31002KT 22/18 A301 RMK A01 T02170178  RH  078%=      5-min Rain = 0
KCL2 031232Z 32002KT 22/18 A301 RMK A01 T02170177  RH  078%=      5-min Rain = 0
KCL2 031233Z 33002KT 22/18 A301 RMK A01 T02170179  RH  079%=      5-min Rain = 0
KCL2 031234Z 33002KT 22/18 A301 RMK A01 T02170179  RH  079%=      5-min Rain = 0
KCL2 031235Z 34002KT 22/18 A301 RMK A01 T02170179  RH  079%=      5-min Rain = 0
KCL2 031236Z 33002KT 22/18 A301 RMK A01 T02170179  RH  079%=      5-min Rain = 0
KCL2 031237Z 32001KT 22/18 A301 RMK A01 T02170178  RH  078%=      5-min Rain = 0
KCL2 031238Z 31001KT 22/18 A301 RMK A01 T02180179  RH  078%=      5-min Rain = 0
KCL2 031239Z 29002KT 22/18 A301 RMK A01 T02180179  RH  078%=      5-min Rain = 0
KCL2 031240Z 28002KT 22/18 A3011 RMK A01 T02180180  RH  079%=      5-min Rain = 0
KCL2 031241Z 27002KT 22/18 A3011 RMK A01 T02180179  RH  079%=      5-min Rain = 0
KCL2 031242Z 26003KT 22/18 A3011 RMK A01 T02180181  RH  079%=      5-min Rain = 0
KCL2 031243Z 26004KT 22/18 A3011 RMK A01 T02180179  RH  078%=      5-min Rain = 0
KCL2 031244Z 26003KT 22/18 A3011 RMK A01 T02180179  RH  078%=      5-min Rain = 0
KCL2 031245Z 26003KT 22/18 A3011 RMK A01 T02190179  RH  078%=      5-min Rain = 0
KCL2 031246Z 26003KT 22/18 A3011 RMK A01 T02190178  RH  077%=      5-min Rain = 0
KCL2 031247Z 26003KT 22/18 A3011 RMK A01 T02200178  RH  077%=      5-min Rain = 0
KCL2 031248Z 26003KT 22/18 A3011 RMK A01 T02200180  RH  078%=      5-min Rain = 0
KCL2 031249Z 26003KT 22/18 A3011 RMK A01 T02210180  RH  078%=      5-min Rain = 0
KCL2 031250Z 27002KT 22/18 A3011 RMK A01 T02220181  RH  077%=      5-min Rain = 0
KCL2 031251Z 27003KT 22/18 A3011 RMK A01 T02230180  RH  077%=      5-min Rain = 0
KCL2 031252Z 28003KT 22/18 A3011 RMK A01 T02230180  RH  076%=      5-min Rain = 0
KCL2 031253Z 28003KT 22/18 A3011 RMK A01 T02240180  RH  076%=      5-min Rain = 0
KCL2 031254Z 28003KT 23/18 A3011 RMK A01 T02250180  RH  076%=      5-min Rain = 0
KCL2 031255Z 29003KT 23/18 A3011 RMK A01 T02260181  RH  076%=      5-min Rain = 0
KCL2 031256Z 29003KT 23/18 A3011 RMK A01 T02260181  RH  075%=      5-min Rain = 0
KCL2 031257Z 31003KT 23/18 A3011 RMK A01 T02270181  RH  075%=      5-min Rain = 0
KCL2 031258Z 28002KT 23/18 A3011 RMK A01 T02280182  RH  075%=      5-min Rain = 0
KCL2 031259Z 29003KT 23/18 A3011 RMK A01 T02280182  RH  075%=      5-min Rain = 0
KCL2 031300Z 28004KT 23/18 A3011 RMK A01 T02290181  RH  075%=      5-min Rain = 0
KCL2 031301Z 29004KT 23/18 A3011 RMK A01 T02290181  RH  074%=      5-min Rain = 0
KCL2 031302Z 28004KT 23/18 A3011 RMK A01 T02290182  RH  075%=      5-min Rain = 0
KCL2 031303Z 28004KT 23/18 A3011 RMK A01 T02290182  RH  075%=      5-min Rain = 0
KCL2 031304Z 27003KT 23/18 A3011 RMK A01 T02290182  RH  075%=      5-min Rain = 0
KCL2 031305Z 27004KT 23/18 A3011 RMK A01 T02300184  RH  075%=      5-min Rain = 0
KCL2 031306Z 27003KT 23/18 A3011 RMK A01 T02310184  RH  075%=      5-min Rain = 0
KCL2 031307Z 28003KT 23/18 A3011 RMK A01 T02320184  RH  075%=      5-min Rain = 0
KCL2 031308Z 27004KT 23/18 A3011 RMK A01 T02320183  RH  074%=      5-min Rain = 0
KCL2 031309Z 28003KT 23/18 A3011 RMK A01 T02330184  RH  074%=      5-min Rain = 0
KCL2 031310Z 28003KT 23/18 A3011 RMK A01 T02330183  RH  073%=      5-min Rain = 0
KCL2 031311Z 29003KT 23/18 A3011 RMK A01 T02330183  RH  073%=      5-min Rain = 0
KCL2 031312Z 29003KT 23/18 A3011 RMK A01 T02330182  RH  073%=      5-min Rain = 0
KCL2 031313Z 30003KT 23/18 A3011 RMK A01 T02330183  RH  073%=      5-min Rain = 0
KCL2 031314Z 30003KT 23/18 A3011 RMK A01 T02330183  RH  073%=      5-min Rain = 0
KCL2 031315Z 30003KT 23/18 A3011 RMK A01 T02330184  RH  074%=      5-min Rain = 0
KCL2 031316Z 31003KT 23/18 A3011 RMK A01 T02330183  RH  073%=      5-min Rain = 0
KCL2 031317Z 30003KT 23/18 A3011 RMK A01 T02330183  RH  074%=      5-min Rain = 0
KCL2 031318Z 29003KT 23/18 A3011 RMK A01 T02330184  RH  074%=      5-min Rain = 0
KCL2 031319Z 29003KT 23/19 A3011 RMK A01 T02330185  RH  074%=      5-min Rain = 0
KCL2 031320Z 29003KT 23/18 A3011 RMK A01 T02320184  RH  074%=      5-min Rain = 0
KCL2 031321Z 28003KT 23/18 A3011 RMK A01 T02320184  RH  074%=      5-min Rain = 0
KCL2 031322Z 28003KT 23/18 A3011 RMK A01 T02310184  RH  075%=      5-min Rain = 0
KCL2 031323Z 28003KT 23/18 A3011 RMK A01 T02310184  RH  075%=      5-min Rain = 0
KCL2 031324Z 27003KT 23/18 A3011 RMK A01 T02300184  RH  075%=      5-min Rain = 0
KCL2 031325Z 28003KT 23/18 A3011 RMK A01 T02300184  RH  075%=      5-min Rain = 0
KCL2 031326Z 28003KT 23/18 A3011 RMK A01 T02300184  RH  075%=      5-min Rain = 0
KCL2 031327Z 28003KT 23/18 A3011 RMK A01 T02290184  RH  076%=      5-min Rain = 0
KCL2 031328Z 28003KT 23/19 A3011 RMK A01 T02290185  RH  076%=      5-min Rain = 0
KCL2 031329Z 28003KT 23/19 A3011 RMK A01 T02290185  RH  076%=      5-min Rain = 0
KCL2 031330Z 28003KT 23/19 A3011 RMK A01 T02290185  RH  076%=      5-min Rain = 0
KCL2 031331Z 28004KT 23/19 A3012 RMK A01 T02290185  RH  076%=      5-min Rain = 0
KCL2 031332Z 29004KT 23/19 A3011 RMK A01 T02290185  RH  076%=      5-min Rain = 0
KCL2 031333Z 29005KT 23/19 A3012 RMK A01 T02290185  RH  076%=      5-min Rain = 0
KCL2 031334Z 29004KT 23/19 A3012 RMK A01 T02290185  RH  076%=      5-min Rain = 0
KCL2 031335Z 28004KT 23/19 A3012 RMK A01 T02290185  RH  076%=      5-min Rain = 0
KCL2 031336Z 28004KT 23/19 A3012 RMK A01 T02290186  RH  077%=      5-min Rain = 0
KCL2 031337Z 28004KT 23/19 A3012 RMK A01 T02290186  RH  077%=      5-min Rain = 0
KCL2 031338Z 28004KT 23/19 A3012 RMK A01 T02290186  RH  077%=      5-min Rain = 0
KCL2 031339Z 28003KT 23/19 A3012 RMK A01 T02280185  RH  077%=      5-min Rain = 0
KCL2 031340Z 29004KT 23/19 A3012 RMK A01 T02280185  RH  077%=      5-min Rain = 0
KCL2 031341Z 30004KT 23/19 A3012 RMK A01 T02280185  RH  077%=      5-min Rain = 0
KCL2 031342Z 30004KT 23/19 A3012 RMK A01 T02280185  RH  077%=      5-min Rain = 0
KCL2 031343Z 30004KT 23/19 A3012 RMK A01 T02270185  RH  077%=      5-min Rain = 0
KCL2 031344Z 30004KT 23/19 A3012 RMK A01 T02270185  RH  077%=      5-min Rain = 0
KCL2 031345Z 30004KT 23/19 A3012 RMK A01 T02280185  RH  077%=      5-min Rain = 0
KCL2 031346Z 29004KT 23/19 A3012 RMK A01 T02270185  RH  077%=      5-min Rain = 0
KCL2 031347Z 29004KT 23/19 A3012 RMK A01 T02270185  RH  077%=      5-min Rain = 0
KCL2 031348Z 29004KT 23/19 A3012 RMK A01 T02270186  RH  077%=      5-min Rain = 0
KCL2 031349Z 29003KT 23/19 A3012 RMK A01 T02270186  RH  077%=      5-min Rain = 0
KCL2 031350Z 28003KT 23/19 A3012 RMK A01 T02270186  RH  077%=      5-min Rain = 0
KCL2 031351Z 28003KT 23/19 A3012 RMK A01 T02280186  RH  078%=      5-min Rain = 0
KCL2 031352Z 29003KT 23/19 A3012 RMK A01 T02270187  RH  078%=      5-min Rain = 0
KCL2 031353Z 29003KT 23/19 A3012 RMK A01 T02270186  RH  077%=      5-min Rain = 0
KCL2 031354Z 28003KT 23/19 A3012 RMK A01 T02270186  RH  077%=      5-min Rain = 0
KCL2 031355Z 29003KT 23/19 A3012 RMK A01 T02270186  RH  078%=      5-min Rain = 0
KCL2 031356Z 30003KT 23/19 A3012 RMK A01 T02270186  RH  077%=      5-min Rain = 0
KCL2 031357Z 29003KT 23/19 A3012 RMK A01 T02270186  RH  077%=      5-min Rain = 0
KCL2 031358Z 30003KT 23/19 A3012 RMK A01 T02270187  RH  078%=      5-min Rain = 0
KCL2 031359Z 32003KT 23/19 A3012 RMK A01 T02270187  RH  078%=      5-min Rain = 0
KCL2 031400Z 31004KT 23/19 A3012 RMK A01 T02270186  RH  077%=      5-min Rain = 0
KCL2 031401Z 31003KT 23/19 A3012 RMK A01 T02270185  RH  077%=      5-min Rain = 0
KCL2 031402Z 32003KT 23/19 A3012 RMK A01 T02280185  RH  077%=      5-min Rain = 0
KCL2 031403Z 32004KT 23/19 A3012 RMK A01 T02270185  RH  077%=      5-min Rain = 0
KCL2 031404Z 32004KT 23/19 A3012 RMK A01 T02280185  RH  077%=      5-min Rain = 0
KCL2 031405Z 31003KT 23/19 A3011 RMK A01 T02280185  RH  077%=      5-min Rain = 0
KCL2 031406Z 31003KT 23/19 A3012 RMK A01 T02270185  RH  077%=      5-min Rain = 0
KCL2 031407Z 31003KT 23/19 A3011 RMK A01 T02270185  RH  077%=      5-min Rain = 0
KCL2 031408Z 31003KT 23/19 A3012 RMK A01 T02270185  RH  077%=      5-min Rain = 0
KCL2 031409Z 31003KT 23/19 A3012 RMK A01 T02270185  RH  077%=      5-min Rain = 0
KCL2 031410Z 31004KT 23/19 A3012 RMK A01 T02270185  RH  077%=      5-min Rain = 0
KCL2 031411Z 31004KT 23/19 A3012 RMK A01 T02260185  RH  077%=      5-min Rain = 0
KCL2 031412Z 31004KT 23/19 A3012 RMK A01 T02260186  RH  078%=      5-min Rain = 0
KCL2 031413Z 31004KT 23/19 A3012 RMK A01 T02260186  RH  078%=      5-min Rain = 0
KCL2 031414Z 32004KT 23/19 A3012 RMK A01 T02260186  RH  078%=      5-min Rain = 0
KCL2 031415Z 31004KT 23/19 A3012 RMK A01 T02260186  RH  078%=      5-min Rain = 0
KCL2 031416Z 32003KT 23/19 A3012 RMK A01 T02260186  RH  078%=      5-min Rain = 0
KCL2 031417Z 31003KT 23/19 A3012 RMK A01 T02260187  RH  078%=      5-min Rain = 0
KCL2 031418Z 31004KT 23/19 A3011 RMK A01 T02260186  RH  078%=      5-min Rain = 0
KCL2 031419Z 30003KT 23/19 A3011 RMK A01 T02260185  RH  078%=      5-min Rain = 0
KCL2 031420Z 30004KT 23/19 A3011 RMK A01 T02260186  RH  078%=      5-min Rain = 0
KCL2 031421Z 30004KT 23/19 A3011 RMK A01 T02260185  RH  078%=      5-min Rain = 0
KCL2 031422Z 30003KT 23/19 A3011 RMK A01 T02260185  RH  078%=      5-min Rain = 0
KCL2 031423Z 31003KT 23/19 A3011 RMK A01 T02260185  RH  078%=      5-min Rain = 0
KCL2 031424Z 32003KT 23/19 A3012 RMK A01 T02250185  RH  078%=      5-min Rain = 0
KCL2 031425Z 31003KT 23/19 A3012 RMK A01 T02260186  RH  078%=      5-min Rain = 0
KCL2 031426Z 33003KT 23/19 A3012 RMK A01 T02250186  RH  078%=      5-min Rain = 0
KCL2 031427Z 32004KT 23/19 A3012 RMK A01 T02250186  RH  078%=      5-min Rain = 0
KCL2 031428Z 32003KT 23/19 A3012 RMK A01 T02260186  RH  078%=      5-min Rain = 0
KCL2 031429Z 32003KT 23/19 A3012 RMK A01 T02260186  RH  078%=      5-min Rain = 0
KCL2 031430Z 32003KT 23/19 A3012 RMK A01 T02260186  RH  078%=      5-min Rain = 0
KCL2 031431Z 32003KT 23/19 A3012 RMK A01 T02260186  RH  078%=      5-min Rain = 0
KCL2 031432Z 32003KT 23/19 A3012 RMK A01 T02260186  RH  078%=      5-min Rain = 0
KCL2 031433Z 32003KT 23/19 A3012 RMK A01 T02260186  RH  078%=      5-min Rain = 0
KCL2 031434Z 32003KT 23/19 A3012 RMK A01 T02260186  RH  078%=      5-min Rain = 0
KCL2 031435Z 33003KT 23/19 A3012 RMK A01 T02260187  RH  078%=      5-min Rain = 0
KCL2 031436Z 33004KT 23/19 A3012 RMK A01 T02260186  RH  078%=      5-min Rain = 0
KCL2 031437Z 33004KT 23/19 A3012 RMK A01 T02270187  RH  078%=      5-min Rain = 0
KCL2 031438Z 32004KT 23/19 A3012 RMK A01 T02260186  RH  078%=      5-min Rain = 0
KCL2 031439Z 32004KT 23/19 A3012 RMK A01 T02270187  RH  078%=      5-min Rain = 0
KCL2 031440Z 33004KT 23/19 A3012 RMK A01 T02270186  RH  078%=      5-min Rain = 0
KCL2 031441Z 33003KT 23/19 A3012 RMK A01 T02270188  RH  078%=      5-min Rain = 0
KCL2 031442Z 33003KT 23/19 A3012 RMK A01 T02270188  RH  079%=      5-min Rain = 0
KCL2 031443Z 32004KT 23/19 A3011 RMK A01 T02270188  RH  079%=      5-min Rain = 0
KCL2 031444Z 33005KT 23/19 A3011 RMK A01 T02270188  RH  078%=      5-min Rain = 0
KCL2 031445Z 33005KT 23/19 A3011 RMK A01 T02270187  RH  078%=      5-min Rain = 0
KCL2 031446Z 33006KT 23/19 A3011 RMK A01 T02270187  RH  078%=      5-min Rain = 0
KCL2 031447Z 33005KT 23/19 A3011 RMK A01 T02260186  RH  078%=      5-min Rain = 0
KCL2 031448Z 33004KT 23/19 A3011 RMK A01 T02260187  RH  078%=      5-min Rain = 0
KCL2 031449Z 33005KT 23/19 A3011 RMK A01 T02260187  RH  079%=      5-min Rain = 0
KCL2 031450Z 33004KT 23/19 A3011 RMK A01 T02250187  RH  079%=      5-min Rain = 0
KCL2 031451Z 33005KT 23/19 A3011 RMK A01 T02260187  RH  079%=      5-min Rain = 0
KCL2 031452Z 34005KT 23/19 A3011 RMK A01 T02260187  RH  079%=      5-min Rain = 0
KCL2 031453Z 33004KT 23/19 A3011 RMK A01 T02250186  RH  078%=      5-min Rain = 0
KCL2 031454Z 33004KT 23/19 A3011 RMK A01 T02250186  RH  079%=      5-min Rain = 0
KCL2 031455Z 33004KT 23/19 A3011 RMK A01 T02250187  RH  079%=      5-min Rain = 0
KCL2 031456Z 34003KT 23/19 A3011 RMK A01 T02250187  RH  079%=      5-min Rain = 0
KCL2 031457Z 35003KT 23/19 A3011 RMK A01 T02250187  RH  079%=      5-min Rain = 0
KCL2 031458Z 35003KT 23/19 A3011 RMK A01 T02250188  RH  079%=      5-min Rain = 0
KCL2 031459Z 33002KT 23/19 A3011 RMK A01 T02250189  RH  080%=      5-min Rain = 0
KCL2 031500Z 33003KT 23/19 A3011 RMK A01 T02250190  RH  080%=      5-min Rain = 0
KCL2 031501Z 34003KT 23/19 A3011 RMK A01 T02250189  RH  080%=      5-min Rain = 0
KCL2 031502Z 34002KT 23/19 A3011 RMK A01 T02250189  RH  080%=      5-min Rain = 0
KCL2 031503Z 34002KT 22/19 A3011 RMK A01 T02240189  RH  081%=      5-min Rain = 0
KCL2 031504Z 00001KT 22/19 A3011 RMK A01 T02240190  RH  081%=      5-min Rain = 0
KCL2 031505Z 36001KT 22/19 A3011 RMK A01 T02240190  RH  081%=      5-min Rain = 0
KCL2 031506Z 01000KT 22/19 A3011 RMK A01 T02240189  RH  081%=      5-min Rain = 0
KCL2 031507Z 00000KT 22/19 A3011 RMK A01 T02240191  RH  081%=      5-min Rain = 0
KCL2 031508Z 00000KT 23/19 A3012 RMK A01 T02250191  RH  081%=      5-min Rain = 0
KCL2 031509Z 00000KT 23/19 A3012 RMK A01 T02250191  RH  081%=      5-min Rain = 0
KCL2 031510Z 00000KT 23/19 A3012 RMK A01 T02250190  RH  081%=      5-min Rain = 0
KCL2 031511Z 26001KT 23/19 A3012 RMK A01 T02250191  RH  081%=      5-min Rain = 0
KCL2 031512Z 27001KT 23/19 A3012 RMK A01 T02250193  RH  082%=      5-min Rain = 0
KCL2 031513Z 28001KT 23/19 A3012 RMK A01 T02250194  RH  083%=      5-min Rain = 0
KCL2 031514Z 29001KT 22/20 A3012 RMK A01 T02240196  RH  084%=      5-min Rain = 0
KCL2 031515Z 29000KT 22/20 A3012 RMK A01 T02240195  RH  084%=      5-min Rain = 0
KCL2 031516Z 34000KT 22/20 A3011 RMK A01 T02240197  RH  085%=      5-min Rain = 0
KCL2 031517Z 33000KT 22/20 A3011 RMK A01 T02240197  RH  085%=      5-min Rain = 0
KCL2 031518Z 00000KT 22/19 A3011 RMK A01 T02240191  RH  082%=      5-min Rain = 0
KCL2 031519Z 00000KT 22/19 A3011 RMK A01 T02240190  RH  081%=      5-min Rain = 0
KCL2 031520Z 07000KT 22/19 A3011 RMK A01 T02240192  RH  082%=      5-min Rain = 0
KCL2 031521Z 07001KT 22/19 A3011 RMK A01 T02240194  RH  083%=      5-min Rain = 0
KCL2 031522Z 07001KT 22/20 A3011 RMK A01 T02240196  RH  084%=      5-min Rain = 0
KCL2 031523Z 08001KT 23/20 A3011 RMK A01 T02250198  RH  085%=      5-min Rain = 0
KCL2 031524Z 10002KT 22/19 A3011 RMK A01 T02240194  RH  083%=      5-min Rain = 0
KCL2 031525Z 10003KT 22/19 A3011 RMK A01 T02230193  RH  083%=      5-min Rain = 0
KCL2 031526Z 10003KT 22/19 A3011 RMK A01 T02230193  RH  083%=      5-min Rain = 0
KCL2 031527Z 09003KT 22/19 A3011 RMK A01 T02230192  RH  083%=      5-min Rain = 0
KCL2 031528Z 09002KT 22/19 A3011 RMK A01 T02230193  RH  083%=      5-min Rain = 0
KCL2 031529Z 07003KT 22/19 A3011 RMK A01 T02240193  RH  083%=      5-min Rain = 0
KCL2 031530Z 01003KT 22/19 A3012 RMK A01 T02240194  RH  083%=      5-min Rain = 0
KCL2 031531Z 34006KT 22/20 A3012 RMK A01 T02240196  RH  084%=      5-min Rain = 0
KCL2 031532Z 34007KT 22/20 A3012 RMK A01 T02240199  RH  086%=      5-min Rain = 0
KCL2 031533Z 34007KT 22/20 A3012 RMK A01 T02230198  RH  086%=      5-min Rain = 0
KCL2 031534Z 34007KT 22/20 A3012 RMK A01 T02220197  RH  086%=      5-min Rain = 0
KCL2 031535Z 34006KT 22/20 A3012 RMK A01 T02210196  RH  086%=      5-min Rain = 0
KCL2 031536Z 35005KT 22/20 A3012 RMK A01 T02200195  RH  086%=      5-min Rain = 0
KCL2 031537Z 35004KT 22/20 A3012 RMK A01 T02200196  RH  086%=      5-min Rain = 0
KCL2 031538Z 35005KT 22/20 A3013 RMK A01 T02200196  RH  086%=      5-min Rain = 0
KCL2 031539Z 35004KT 22/20 A3012 RMK A01 T02200197  RH  087%=      5-min Rain = 0
KCL2 031540Z 01003KT 22/20 A3012 RMK A01 T02200198  RH  087%=      5-min Rain = 0
KCL2 031541Z 03002KT 22/20 A3012 RMK A01 T02200199  RH  088%=      5-min Rain = 0
KCL2 031542Z 05003KT 22/20 A3012 RMK A01 T02200199  RH  088%=      5-min Rain = 0
KCL2 031543Z 05003KT 22/20 A3012 RMK A01 T02200198  RH  087%=      5-min Rain = 0
KCL2 031544Z 05004KT 22/20 A3012 RMK A01 T02200197  RH  087%=      5-min Rain = 0
KCL2 031545Z 05004KT 22/20 A3012 RMK A01 T02200196  RH  086%=      5-min Rain = 0
KCL2 031546Z 05005KT 22/20 A3012 RMK A01 T02210197  RH  086%=      5-min Rain = 0
KCL2 031547Z 05005KT 22/20 A3012 RMK A01 T02210198  RH  087%=      5-min Rain = 0
KCL2 031548Z 06006KT 22/20 A3012 RMK A01 T02210198  RH  087%=      5-min Rain = 0
KCL2 031549Z 06006KT 22/20 A3012 RMK A01 T02210197  RH  086%=      5-min Rain = 0
KCL2 031550Z 07005KT 22/20 A3012 RMK A01 T02220198  RH  086%=      5-min Rain = 0
KCL2 031551Z 06005KT 22/20 A3012 RMK A01 T02220200  RH  087%=      5-min Rain = 0
KCL2 031552Z 06005KT 22/20 A3012 RMK A01 T02230198  RH  086%=      5-min Rain = 0
KCL2 031553Z 05004KT 22/20 A3012 RMK A01 T02220198  RH  086%=      5-min Rain = 0
KCL2 031554Z 04004KT 22/20 A3012 RMK A01 T02230200  RH  087%=      5-min Rain = 0
KCL2 031555Z 06001KT 22/20 A3012 RMK A01 T02230199  RH  086%=      5-min Rain = 0
KCL2 031556Z 00000KT 22/20 A3012 RMK A01 T02230199  RH  086%=      5-min Rain = 0
KCL2 031557Z 32000KT 22/20 A3013 RMK A01 T02230196  RH  085%=      5-min Rain = 0
KCL2 031558Z 25001KT 22/20 A3013 RMK A01 T02230196  RH  085%=      5-min Rain = 0
KCL2 031559Z 27001KT 22/20 A3013 RMK A01 T02240197  RH  085%=      5-min Rain = 0
KCL2 031600Z 28002KT 22/20 A3013 RMK A01 T02240199  RH  086%=      5-min Rain = 0
KCL2 031601Z 28002KT 23/20 A3013 RMK A01 T02250201  RH  086%=      5-min Rain = 0
KCL2 031602Z 27002KT 23/20 A3013 RMK A01 T02250202  RH  087%=      5-min Rain = 0
KCL2 031603Z 28002KT 23/20 A3013 RMK A01 T02250201  RH  086%=      5-min Rain = 0
KCL2 031604Z 25001KT 23/20 A3013 RMK A01 T02250200  RH  086%=      5-min Rain = 0
KCL2 031605Z 24001KT 23/20 A3013 RMK A01 T02250202  RH  087%=      5-min Rain = 0
KCL2 031606Z 28001KT 23/20 A3013 RMK A01 T02260200  RH  085%=      5-min Rain = 0
KCL2 031607Z 28001KT 23/20 A3013 RMK A01 T02250198  RH  084%=      5-min Rain = 0
KCL2 031608Z 28003KT 23/20 A3013 RMK A01 T02250201  RH  086%=      5-min Rain = 0
KCL2 031609Z 28004KT 23/20 A3014 RMK A01 T02260202  RH  086%=      5-min Rain = 0
KCL2 031610Z 27004KT 23/20 A3014 RMK A01 T02260201  RH  085%=      5-min Rain = 0
KCL2 031611Z 25004KT 23/20 A3014 RMK A01 T02260202  RH  086%=      5-min Rain = 0
KCL2 031612Z 25004KT 23/20 A3014 RMK A01 T02270201  RH  086%=      5-min Rain = 0
KCL2 031613Z 25005KT 23/20 A3014 RMK A01 T02260204  RH  087%=      5-min Rain = 0
KCL2 031614Z 25005KT 23/20 A3014 RMK A01 T02260204  RH  087%=      5-min Rain = 0
KCL2 031615Z 25007KT 23/20 A3014 RMK A01 T02270204  RH  087%=      5-min Rain = 0
KCL2 031616Z 26006KT 23/20 A3014 RMK A01 T02260204  RH  087%=      5-min Rain = 0
KCL2 031617Z 27008KT 23/20 A3015 RMK A01 T02260204  RH  087%=      5-min Rain = 0
KCL2 031618Z 27006KT 23/20 A3015 RMK A01 T02260202  RH  087%=      5-min Rain = 0
KCL2 031619Z 27007KT 23/20 A3015 RMK A01 T02250203  RH  087%=      5-min Rain = 0
KCL2 031620Z 27005KT 23/20 A3015 RMK A01 T02250202  RH  087%=      5-min Rain = 0
KCL2 031621Z 27005KT 23/20 A3015 RMK A01 T02250201  RH  087%=      5-min Rain = 0
KCL2 031622Z 27004KT 22/20 A3015 RMK A01 T02240201  RH  087%=      5-min Rain = 0
KCL2 031623Z 27005KT 22/20 A3015 RMK A01 T02240201  RH  087%=      5-min Rain = 0
KCL2 031624Z 26005KT 22/20 A3014 RMK A01 T02240200  RH  086%=      5-min Rain = 0
KCL2 031625Z 27007KT 22/20 A3014 RMK A01 T02240200  RH  087%=      5-min Rain = 0
KCL2 031626Z 26005KT 22/20 A3014 RMK A01 T02230198  RH  086%=      5-min Rain = 0
KCL2 031627Z 26005KT 22/20 A3014 RMK A01 T02220198  RH  086%=      5-min Rain = 0
KCL2 031628Z 26005KT 22/20 A3014 RMK A01 T02220197  RH  086%=      5-min Rain = 0
KCL2 031629Z 26003KT 22/20 A3014 RMK A01 T02220197  RH  086%=      5-min Rain = 0
KCL2 031630Z 26002KT 22/20 A3014 RMK A01 T02220198  RH  086%=      5-min Rain = 0
KCL2 031631Z 26003KT 22/20 A3014 RMK A01 T02220199  RH  087%=      5-min Rain = 0
KCL2 031632Z 25003KT 22/20 A3014 RMK A01 T02220199  RH  087%=      5-min Rain = 0
KCL2 031633Z 25004KT 22/20 A3014 RMK A01 T02220200  RH  087%=      5-min Rain = 0
KCL2 031634Z 24003KT 22/20 A3014 RMK A01 T02220199  RH  087%=      5-min Rain = 0
KCL2 031635Z 24004KT 22/20 A3015 RMK A01 T02220199  RH  087%=      5-min Rain = 0
KCL2 031636Z 24005KT 22/20 A3015 RMK A01 T02220199  RH  087%=      5-min Rain = 0
KCL2 031637Z 25005KT 22/20 A3015 RMK A01 T02220198  RH  087%=      5-min Rain = 0
KCL2 031638Z 26004KT 22/20 A3015 RMK A01 T02220200  RH  087%=      5-min Rain = 0
KCL2 031639Z 26004KT 22/20 A3015 RMK A01 T02220201  RH  088%=      5-min Rain = 0
KCL2 031640Z 25004KT 22/20 A3015 RMK A01 T02220201  RH  088%=      5-min Rain = 0
KCL2 031641Z 24003KT 22/20 A3015 RMK A01 T02220200  RH  087%=      5-min Rain = 0
KCL2 031642Z 26002KT 22/20 A3015 RMK A01 T02220199  RH  087%=      5-min Rain = 0
KCL2 031643Z 27002KT 22/20 A3015 RMK A01 T02230202  RH  088%=      5-min Rain = 0
KCL2 031644Z 27003KT 22/20 A3015 RMK A01 T02230202  RH  088%=      5-min Rain = 0
KCL2 031645Z 27004KT 22/20 A3015 RMK A01 T02230200  RH  087%=      5-min Rain = 0
KCL2 031646Z 27004KT 22/20 A3015 RMK A01 T02230200  RH  086%=      5-min Rain = 0
KCL2 031647Z 28004KT 22/20 A3015 RMK A01 T02230200  RH  087%=      5-min Rain = 0
KCL2 031648Z 28004KT 22/20 A3015 RMK A01 T02240203  RH  088%=      5-min Rain = 0
KCL2 031649Z 28004KT 23/20 A3015 RMK A01 T02250204  RH  088%=      5-min Rain = 0
KCL2 031650Z 29004KT 23/20 A3015 RMK A01 T02250203  RH  087%=      5-min Rain = 0
KCL2 031651Z 29004KT 23/20 A3015 RMK A01 T02250203  RH  088%=      5-min Rain = 0
KCL2 031652Z 29004KT 23/20 A3015 RMK A01 T02250203  RH  087%=      5-min Rain = 0
KCL2 031653Z 29004KT 23/20 A3015 RMK A01 T02250203  RH  087%=      5-min Rain = 0
KCL2 031654Z 28004KT 23/20 A3015 RMK A01 T02250203  RH  087%=      5-min Rain = 0
KCL2 031655Z 28004KT 23/20 A3015 RMK A01 T02250200  RH  086%=      5-min Rain = 0
KCL2 031656Z 28003KT 23/20 A3015 RMK A01 T02250201  RH  086%=      5-min Rain = 0
KCL2 031657Z 28003KT 23/20 A3015 RMK A01 T02250202  RH  087%=      5-min Rain = 0
KCL2 031658Z 27003KT 23/20 A3015 RMK A01 T02260204  RH  087%=      5-min Rain = 0
KCL2 031659Z 27003KT 23/20 A3015 RMK A01 T02270203  RH  087%=      5-min Rain = 0
KCL2 031700Z 26004KT 23/20 A3015 RMK A01 T02260203  RH  086%=      5-min Rain = 0
KCL2 031701Z 27003KT 23/20 A3015 RMK A01 T02270203  RH  086%=      5-min Rain = 0
KCL2 031702Z 26003KT 23/20 A3015 RMK A01 T02270202  RH  086%=      5-min Rain = 0
KCL2 031703Z 27004KT 23/21 A3015 RMK A01 T02280205  RH  087%=      5-min Rain = 0
KCL2 031704Z 27004KT 23/20 A3015 RMK A01 T02280200  RH  085%=      5-min Rain = 0
KCL2 031705Z 28004KT 23/20 A3015 RMK A01 T02270202  RH  086%=      5-min Rain = 0
KCL2 031706Z 27004KT 23/20 A3015 RMK A01 T02280202  RH  085%=      5-min Rain = 0
KCL2 031707Z 28004KT 23/20 A3015 RMK A01 T02280201  RH  085%=      5-min Rain = 0
KCL2 031708Z 27004KT 23/20 A3015 RMK A01 T02280202  RH  085%=      5-min Rain = 0
KCL2 031709Z 27004KT 23/20 A3015 RMK A01 T02290201  RH  084%=      5-min Rain = 0
KCL2 031710Z 27003KT 23/20 A3015 RMK A01 T02290200  RH  084%=      5-min Rain = 0
KCL2 031711Z 27003KT 23/20 A3015 RMK A01 T02290203  RH  085%=      5-min Rain = 0.01
KCL2 031712Z 27004KT 23/20 A3015 RMK A01 T02290202  RH  085%=      5-min Rain = 0
KCL2 031713Z 26004KT 23/20 A3015 RMK A01 T02290202  RH  084%=      5-min Rain = 0
KCL2 031714Z 27005KT 23/20 A3016 RMK A01 T02290200  RH  084%=      5-min Rain = 0
KCL2 031715Z 27005KT 23/20 A3016 RMK A01 T02290198  RH  083%=      5-min Rain = 0
KCL2 031716Z 27005KT 23/20 A3016 RMK A01 T02290200  RH  084%=      5-min Rain = 0
KCL2 031717Z 27004KT 23/20 A3016 RMK A01 T02290201  RH  085%=      5-min Rain = 0
KCL2 031718Z 25004KT 23/20 A3016 RMK A01 T02290201  RH  084%=      5-min Rain = 0
KCL2 031719Z 26004KT 23/20 A3016 RMK A01 T02290201  RH  084%=      5-min Rain = 0
KCL2 031720Z 26004KT 23/20 A3016 RMK A01 T02300201  RH  084%=      5-min Rain = 0
KCL2 031721Z 26003KT 23/20 A3016 RMK A01 T02300200  RH  083%=      5-min Rain = 0
KCL2 031722Z 27003KT 23/20 A3016 RMK A01 T02300200  RH  084%=      5-min Rain = 0
KCL2 031723Z 27003KT 23/20 A3016 RMK A01 T02300201  RH  084%=      5-min Rain = 0
KCL2 031724Z 26004KT 23/20 A3016 RMK A01 T02300201  RH  084%=      5-min Rain = 0
KCL2 031725Z 26005KT 23/20 A3016 RMK A01 T02300200  RH  083%=      5-min Rain = 0
KCL2 031726Z 26005KT 23/20 A3016 RMK A01 T02310200  RH  083%=      5-min Rain = 0
KCL2 031727Z 26005KT 23/20 A3016 RMK A01 T02310199  RH  083%=      5-min Rain = 0
KCL2 031728Z 27006KT 23/20 A3016 RMK A01 T02310199  RH  082%=      5-min Rain = 0
KCL2 031729Z 26006KT 23/20 A3016 RMK A01 T02310201  RH  083%=      5-min Rain = 0
KCL2 031730Z 26007KT 23/20 A3016 RMK A01 T02310201  RH  083%=      5-min Rain = 0
KCL2 031731Z 26006KT 23/20 A3016 RMK A01 T02310202  RH  083%=      5-min Rain = 0
KCL2 031732Z 27006KT 23/20 A3016 RMK A01 T02320202  RH  084%=      5-min Rain = 0
KCL2 031733Z 28005KT 23/21 A3016 RMK A01 T02320205  RH  085%=      5-min Rain = 0
KCL2 031734Z 27005KT 23/21 A3016 RMK A01 T02330207  RH  085%=      5-min Rain = 0
KCL2 031735Z 27005KT 23/21 A3016 RMK A01 T02340205  RH  083%=      5-min Rain = 0
KCL2 031736Z 28005KT 23/21 A3016 RMK A01 T02340206  RH  084%=      5-min Rain = 0
KCL2 031737Z 27005KT 23/21 A3016 RMK A01 T02340205  RH  084%=      5-min Rain = 0
KCL2 031738Z 27004KT 23/21 A3016 RMK A01 T02340205  RH  084%=      5-min Rain = 0
KCL2 031739Z 28005KT 23/21 A3016 RMK A01 T02340206  RH  084%=      5-min Rain = 0
KCL2 031740Z 28007KT 23/21 A3016 RMK A01 T02340205  RH  084%=      5-min Rain = 0
KCL2 031741Z 28007KT 23/20 A3016 RMK A01 T02340201  RH  082%=      5-min Rain = 0
KCL2 031742Z 28007KT 23/20 A3016 RMK A01 T02320200  RH  082%=      5-min Rain = 0
KCL2 031743Z 28007KT 23/20 A3016 RMK A01 T02320199  RH  082%=      5-min Rain = 0
KCL2 031744Z 28006KT 23/20 A3016 RMK A01 T02320200  RH  082%=      5-min Rain = 0
KCL2 031745Z 28006KT 23/20 A3016 RMK A01 T02320201  RH  083%=      5-min Rain = 0
KCL2 031746Z 27007KT 23/20 A3016 RMK A01 T02320201  RH  083%=      5-min Rain = 0
KCL2 031747Z 28007KT 23/20 A3016 RMK A01 T02310199  RH  082%=      5-min Rain = 0
KCL2 031748Z 28007KT 23/20 A3016 RMK A01 T02310202  RH  083%=      5-min Rain = 0
KCL2 031749Z 28006KT 23/20 A3017 RMK A01 T02310203  RH  084%=      5-min Rain = 0
KCL2 031750Z 28008KT 23/20 A3017 RMK A01 T02320204  RH  084%=      5-min Rain = 0
KCL2 031751Z 27009KT 23/20 A3017 RMK A01 T02320203  RH  084%=      5-min Rain = 0
KCL2 031752Z 29008KT 23/20 A3017 RMK A01 T02320203  RH  084%=      5-min Rain = 0
KCL2 031753Z 28007KT 23/21 A3017 RMK A01 T02320205  RH  085%=      5-min Rain = 0
KCL2 031754Z 28008KT 23/20 A3017 RMK A01 T02320203  RH  084%=      5-min Rain = 0
KCL2 031755Z 28006KT 23/20 A3017 RMK A01 T02310204  RH  084%=      5-min Rain = 0
KCL2 031756Z 29005KT 23/21 A3017 RMK A01 T02310206  RH  086%=      5-min Rain = 0
KCL2 031757Z 29006KT 23/21 A3017 RMK A01 T02310206  RH  086%=      5-min Rain = 0
KCL2 031758Z 29007KT 23/21 A3017 RMK A01 T02310205  RH  085%=      5-min Rain = 0
KCL2 031759Z 29007KT 23/20 A3017 RMK A01 T02300204  RH  086%=      5-min Rain = 0
KCL2 031800Z 30005KT 23/21 A3017 RMK A01 T02300206  RH  087%=      5-min Rain = 0
KCL2 031801Z 31007KT 23/21 A3016 RMK A01 T02290205  RH  086%=      5-min Rain = 0
KCL2 031802Z 30006KT 23/20 A3016 RMK A01 T02280204  RH  086%=      5-min Rain = 0
KCL2 031803Z 30007KT 23/20 A3016 RMK A01 T02280204  RH  086%=      5-min Rain = 0
KCL2 031804Z 30006KT 23/20 A3016 RMK A01 T02270202  RH  086%=      5-min Rain = 0
KCL2 031805Z 29006KT 23/20 A3016 RMK A01 T02270202  RH  086%=      5-min Rain = 0.01
KCL2 031806Z 29005KT 23/20 A3016 RMK A01 T02260203  RH  087%=      5-min Rain = 0
KCL2 031807Z 30005KT 23/20 A3016 RMK A01 T02260204  RH  087%=      5-min Rain = 0
KCL2 031808Z 30006KT 23/21 A3016 RMK A01 T02260205  RH  088%=      5-min Rain = 0
KCL2 031809Z 30005KT 23/20 A3016 RMK A01 T02250204  RH  088%=      5-min Rain = 0
KCL2 031810Z 29005KT 23/20 A3016 RMK A01 T02250204  RH  088%=      5-min Rain = 0
KCL2 031811Z 29005KT 23/21 A3016 RMK A01 T02250205  RH  088%=      5-min Rain = 0
KCL2 031812Z 29004KT 23/21 A3016 RMK A01 T02250205  RH  089%=      5-min Rain = 0
KCL2 031813Z 28004KT 23/21 A3016 RMK A01 T02250206  RH  089%=      5-min Rain = 0
KCL2 031814Z 28004KT 22/21 A3016 RMK A01 T02240205  RH  089%=      5-min Rain = 0
KCL2 031815Z 29004KT 22/21 A3016 RMK A01 T02240205  RH  089%=      5-min Rain = 0
KCL2 031816Z 29004KT 22/21 A3016 RMK A01 T02240207  RH  090%=      5-min Rain = 0
KCL2 031817Z 28005KT 22/21 A3016 RMK A01 T02240206  RH  090%=      5-min Rain = 0
KCL2 031818Z 29004KT 22/21 A3016 RMK A01 T02240206  RH  090%=      5-min Rain = 0
KCL2 031819Z 29004KT 22/21 A3016 RMK A01 T02240208  RH  090%=      5-min Rain = 0
KCL2 031820Z 29005KT 22/21 A3016 RMK A01 T02240206  RH  090%=      5-min Rain = 0
KCL2 031821Z 30004KT 22/21 A3016 RMK A01 T02240206  RH  090%=      5-min Rain = 0
KCL2 031822Z 30003KT 22/21 A3016 RMK A01 T02240207  RH  090%=      5-min Rain = 0
KCL2 031823Z 30003KT 22/21 A3016 RMK A01 T02240207  RH  090%=      5-min Rain = 0
KCL2 031824Z 31003KT 22/21 A3016 RMK A01 T02240208  RH  091%=      5-min Rain = 0
KCL2 031825Z 31003KT 22/21 A3016 RMK A01 T02240210  RH  091%=      5-min Rain = 0.01
KCL2 031826Z 31003KT 23/21 A3016 RMK A01 T02250210  RH  091%=      5-min Rain = 0
KCL2 031827Z 32003KT 23/21 A3016 RMK A01 T02250210  RH  091%=      5-min Rain = 0
KCL2 031828Z 31003KT 23/21 A3016 RMK A01 T02250209  RH  091%=      5-min Rain = 0
KCL2 031829Z 33003KT 23/21 A3016 RMK A01 T02250209  RH  091%=      5-min Rain = 0
KCL2 031830Z 33002KT 23/21 A3016 RMK A01 T02250209  RH  090%=      5-min Rain = 0
KCL2 031831Z 31002KT 23/21 A3016 RMK A01 T02250210  RH  091%=      5-min Rain = 0
KCL2 031832Z 29003KT 23/21 A3016 RMK A01 T02250210  RH  091%=      5-min Rain = 0
KCL2 031833Z 29002KT 23/21 A3016 RMK A01 T02260210  RH  091%=      5-min Rain = 0
KCL2 031834Z 28002KT 23/21 A3016 RMK A01 T02260210  RH  091%=      5-min Rain = 0
KCL2 031835Z 27003KT 23/21 A3016 RMK A01 T02260210  RH  091%=      5-min Rain = 0
KCL2 031836Z 26003KT 23/21 A3016 RMK A01 T02260210  RH  091%=      5-min Rain = 0
KCL2 031837Z 26003KT 23/21 A3016 RMK A01 T02260210  RH  091%=      5-min Rain = 0
KCL2 031838Z 26003KT 23/21 A3016 RMK A01 T02260211  RH  091%=      5-min Rain = 0
KCL2 031839Z 25003KT 23/21 A3016 RMK A01 T02270213  RH  092%=      5-min Rain = 0
KCL2 031840Z 26003KT 23/21 A3016 RMK A01 T02270213  RH  091%=      5-min Rain = 0
KCL2 031841Z 25004KT 23/21 A3016 RMK A01 T02270211  RH  091%=      5-min Rain = 0
KCL2 031842Z 26004KT 23/21 A3016 RMK A01 T02270209  RH  090%=      5-min Rain = 0
KCL2 031843Z 26004KT 23/21 A3016 RMK A01 T02260210  RH  091%=      5-min Rain = 0
KCL2 031844Z 27004KT 23/21 A3016 RMK A01 T02270210  RH  090%=      5-min Rain = 0
KCL2 031845Z 26005KT 23/21 A3016 RMK A01 T02260211  RH  091%=      5-min Rain = 0
KCL2 031846Z 26005KT 23/21 A3016 RMK A01 T02260210  RH  091%=      5-min Rain = 0
KCL2 031847Z 26005KT 23/21 A3016 RMK A01 T02260212  RH  091%=      5-min Rain = 0
KCL2 031848Z 26004KT 23/21 A3016 RMK A01 T02270213  RH  092%=      5-min Rain = 0
KCL2 031849Z 26004KT 23/21 A3016 RMK A01 T02270214  RH  092%=      5-min Rain = 0
KCL2 031850Z 27005KT 23/21 A3016 RMK A01 T02270214  RH  092%=      5-min Rain = 0
KCL2 031851Z 27005KT 23/21 A3016 RMK A01 T02270213  RH  092%=      5-min Rain = 0
KCL2 031852Z 27004KT 23/21 A3016 RMK A01 T02260212  RH  092%=      5-min Rain = 0
KCL2 031853Z 28004KT 23/21 A3016 RMK A01 T02250211  RH  091%=      5-min Rain = 0
KCL2 031854Z 27003KT 23/21 A3016 RMK A01 T02250210  RH  091%=      5-min Rain = 0
KCL2 031855Z 27003KT 22/21 A3015 RMK A01 T02240209  RH  091%=      5-min Rain = 0
KCL2 031856Z 27003KT 22/21 A3015 RMK A01 T02240210  RH  091%=      5-min Rain = 0
KCL2 031857Z 28002KT 23/21 A3015 RMK A01 T02250210  RH  092%=      5-min Rain = 0
KCL2 031858Z 29003KT 22/21 A3015 RMK A01 T02240210  RH  091%=      5-min Rain = 0
KCL2 031859Z 30003KT 23/21 A3015 RMK A01 T02250211  RH  092%=      5-min Rain = 0.01
KCL2 031900Z 29003KT 23/21 A3015 RMK A01 T02250210  RH  092%=      5-min Rain = 0
KCL2 031901Z 29003KT 23/21 A3015 RMK A01 T02250211  RH  092%=      5-min Rain = 0
KCL2 031902Z 29002KT 23/21 A3015 RMK A01 T02250210  RH  092%=      5-min Rain = 0
KCL2 031903Z 28002KT 23/21 A3015 RMK A01 T02250211  RH  092%=      5-min Rain = 0
KCL2 031904Z 29002KT 23/21 A3015 RMK A01 T02250213  RH  093%=      5-min Rain = 0
KCL2 031905Z 29002KT 23/21 A3015 RMK A01 T02250211  RH  092%=      5-min Rain = 0
KCL2 031906Z 30001KT 23/21 A3015 RMK A01 T02250212  RH  092%=      5-min Rain = 0
KCL2 031907Z 30002KT 23/21 A3015 RMK A01 T02250213  RH  093%=      5-min Rain = 0
KCL2 031908Z 33002KT 23/21 A3015 RMK A01 T02250212  RH  092%=      5-min Rain = 0
KCL2 031909Z 33001KT 23/21 A3015 RMK A01 T02250212  RH  092%=      5-min Rain = 0
KCL2 031910Z 34002KT 22/21 A3014 RMK A01 T02240210  RH  092%=      5-min Rain = 0
KCL2 031911Z 33002KT 22/21 A3014 RMK A01 T02240209  RH  091%=      5-min Rain = 0
KCL2 031912Z 34001KT 22/21 A3014 RMK A01 T02240209  RH  091%=      5-min Rain = 0
KCL2 031913Z 34002KT 23/21 A3014 RMK A01 T02250211  RH  092%=      5-min Rain = 0
KCL2 031914Z 34003KT 23/21 A3014 RMK A01 T02250209  RH  091%=      5-min Rain = 0
KCL2 031915Z 34003KT 22/21 A3014 RMK A01 T02240209  RH  091%=      5-min Rain = 0
KCL2 031916Z 33003KT 22/21 A3014 RMK A01 T02240208  RH  090%=      5-min Rain = 0
KCL2 031917Z 33003KT 22/21 A3014 RMK A01 T02240208  RH  090%=      5-min Rain = 0
KCL2 031918Z 31002KT 22/21 A3014 RMK A01 T02240208  RH  091%=      5-min Rain = 0
KCL2 031919Z 31002KT 23/21 A3014 RMK A01 T02250210  RH  091%=      5-min Rain = 0
KCL2 031920Z 31002KT 23/21 A3014 RMK A01 T02250210  RH  091%=      5-min Rain = 0
KCL2 031921Z 32002KT 23/21 A3014 RMK A01 T02250211  RH  092%=      5-min Rain = 0
KCL2 031922Z 33002KT 23/21 A3014 RMK A01 T02250210  RH  091%=      5-min Rain = 0
KCL2 031923Z 34002KT 23/21 A3014 RMK A01 T02250210  RH  091%=      5-min Rain = 0
KCL2 031924Z 35002KT 22/21 A3014 RMK A01 T02240210  RH  091%=      5-min Rain = 0
KCL2 031925Z 35003KT 23/21 A3014 RMK A01 T02250209  RH  091%=      5-min Rain = 0
KCL2 031926Z 35003KT 23/21 A3014 RMK A01 T02250209  RH  091%=      5-min Rain = 0
KCL2 031927Z 33003KT 23/21 A3014 RMK A01 T02250209  RH  091%=      5-min Rain = 0.01
KCL2 031928Z 33004KT 22/21 A3014 RMK A01 T02240208  RH  091%=      5-min Rain = 0
KCL2 031929Z 32005KT 22/21 A3014 RMK A01 T02240208  RH  090%=      5-min Rain = 0
KCL2 031930Z 32004KT 22/21 A3014 RMK A01 T02240205  RH  089%=      5-min Rain = 0
KCL2 031931Z 32004KT 22/21 A3014 RMK A01 T02230207  RH  090%=      5-min Rain = 0
KCL2 031932Z 32004KT 22/21 A3014 RMK A01 T02230207  RH  091%=      5-min Rain = 0
KCL2 031933Z 31004KT 22/21 A3014 RMK A01 T02230207  RH  091%=      5-min Rain = 0
KCL2 031934Z 31004KT 22/21 A3014 RMK A01 T02230206  RH  090%=      5-min Rain = 0
KCL2 031935Z 31003KT 22/21 A3014 RMK A01 T02220206  RH  090%=      5-min Rain = 0
KCL2 031936Z 31003KT 22/21 A3014 RMK A01 T02220207  RH  091%=      5-min Rain = 0
KCL2 031937Z 31003KT 22/21 A3014 RMK A01 T02220205  RH  090%=      5-min Rain = 0
KCL2 031938Z 31003KT 22/21 A3014 RMK A01 T02220207  RH  091%=      5-min Rain = 0
KCL2 031939Z 32004KT 22/21 A3014 RMK A01 T02230210  RH  092%=      5-min Rain = 0
KCL2 031940Z 33004KT 22/21 A3014 RMK A01 T02230209  RH  092%=      5-min Rain = 0.01
KCL2 031941Z 34004KT 22/21 A3014 RMK A01 T02230209  RH  092%=      5-min Rain = 0
KCL2 031942Z 34005KT 22/21 A3014 RMK A01 T02230210  RH  092%=      5-min Rain = 0
KCL2 031943Z 35004KT 22/21 A3014 RMK A01 T02220209  RH  092%=      5-min Rain = 0
KCL2 031944Z 35004KT 22/21 A3014 RMK A01 T02220210  RH  092%=      5-min Rain = 0
KCL2 031945Z 34004KT 22/21 A3014 RMK A01 T02220209  RH  092%=      5-min Rain = 0
KCL2 031946Z 33004KT 22/21 A3014 RMK A01 T02220209  RH  092%=      5-min Rain = 0
KCL2 031947Z 32004KT 22/21 A3014 RMK A01 T02230208  RH  092%=      5-min Rain = 0
KCL2 031948Z 33003KT 22/21 A3014 RMK A01 T02220207  RH  091%=      5-min Rain = 0
KCL2 031949Z 33002KT 22/21 A3014 RMK A01 T02220209  RH  092%=      5-min Rain = 0
KCL2 031950Z 32002KT 22/21 A3014 RMK A01 T02220210  RH  093%=      5-min Rain = 0
KCL2 031951Z 32002KT 22/21 A3014 RMK A01 T02230210  RH  092%=      5-min Rain = 0.01
KCL2 031952Z 30002KT 22/21 A3014 RMK A01 T02230210  RH  092%=      5-min Rain = 0
KCL2 031953Z 31002KT 22/21 A3014 RMK A01 T02230209  RH  092%=      5-min Rain = 0
KCL2 031954Z 31003KT 22/21 A3014 RMK A01 T02220208  RH  092%=      5-min Rain = 0
KCL2 031955Z 32002KT 22/21 A3014 RMK A01 T02210205  RH  090%=      5-min Rain = 0
KCL2 031956Z 30002KT 22/21 A3014 RMK A01 T02210206  RH  091%=      5-min Rain = 0
KCL2 031957Z 30001KT 22/21 A3014 RMK A01 T02220208  RH  092%=      5-min Rain = 0
KCL2 031958Z 32001KT 22/21 A3013 RMK A01 T02220208  RH  092%=      5-min Rain = 0
KCL2 031959Z 33001KT 22/21 A3013 RMK A01 T02230209  RH  092%=      5-min Rain = 0
KCL2 032000Z 34002KT 22/21 A3013 RMK A01 T02230210  RH  092%=      5-min Rain = 0
KCL2 032001Z 00002KT 22/21 A3013 RMK A01 T02230208  RH  091%=      5-min Rain = 0
KCL2 032002Z 00003KT 22/21 A3013 RMK A01 T02230206  RH  090%=      5-min Rain = 0
KCL2 032003Z 02003KT 22/21 A3013 RMK A01 T02230206  RH  091%=      5-min Rain = 0
KCL2 032004Z 02004KT 22/21 A3013 RMK A01 T02230208  RH  091%=      5-min Rain = 0
KCL2 032005Z 01005KT 22/21 A3013 RMK A01 T02240209  RH  091%=      5-min Rain = 0
KCL2 032006Z 01004KT 22/21 A3013 RMK A01 T02240209  RH  091%=      5-min Rain = 0
KCL2 032007Z 02005KT 22/21 A3013 RMK A01 T02240209  RH  091%=      5-min Rain = 0
KCL2 032008Z 00005KT 22/21 A3013 RMK A01 T02230205  RH  090%=      5-min Rain = 0
KCL2 032009Z 36007KT 22/20 A3013 RMK A01 T02220202  RH  088%=      5-min Rain = 0
KCL2 032010Z 36007KT 22/20 A3013 RMK A01 T02220200  RH  087%=      5-min Rain = 0
KCL2 032011Z 36007KT 22/20 A3013 RMK A01 T02210200  RH  088%=      5-min Rain = 0
KCL2 032012Z 36007KT 22/20 A3013 RMK A01 T02210201  RH  088%=      5-min Rain = 0
KCL2 032013Z 36006KT 22/20 A3013 RMK A01 T02210201  RH  089%=      5-min Rain = 0
KCL2 032014Z 36006KT 22/20 A3013 RMK A01 T02200202  RH  089%=      5-min Rain = 0
KCL2 032015Z 36006KT 22/21 A3012 RMK A01 T02210205  RH  091%=      5-min Rain = 0
KCL2 032016Z 35005KT 22/21 A3012 RMK A01 T02210205  RH  091%=      5-min Rain = 0.01
KCL2 032017Z 35006KT 22/21 A3012 RMK A01 T02210206  RH  091%=      5-min Rain = 0
KCL2 032018Z 35007KT 22/21 A3012 RMK A01 T02210205  RH  090%=      5-min Rain = 0
KCL2 032019Z 35007KT 22/20 A3012 RMK A01 T02200202  RH  089%=      5-min Rain = 0
KCL2 032020Z 35006KT 22/20 A3012 RMK A01 T02200202  RH  090%=      5-min Rain = 0
KCL2 032021Z 35006KT 22/20 A3012 RMK A01 T02200203  RH  090%=      5-min Rain = 0
KCL2 032022Z 35007KT 22/20 A3012 RMK A01 T02200201  RH  089%=      5-min Rain = 0
KCL2 032023Z 35006KT 22/20 A3012 RMK A01 T02210200  RH  088%=      5-min Rain = 0
KCL2 032024Z 35006KT 22/20 A3012 RMK A01 T02210198  RH  087%=      5-min Rain = 0
KCL2 032025Z 00005KT 22/20 A3012 RMK A01 T02200198  RH  087%=      5-min Rain = 0
KCL2 032026Z 00005KT 22/20 A3012 RMK A01 T02210200  RH  088%=      5-min Rain = 0
KCL2 032027Z 35005KT 22/20 A3012 RMK A01 T02220203  RH  089%=      5-min Rain = 0
KCL2 032028Z 35005KT 22/20 A3012 RMK A01 T02230201  RH  087%=      5-min Rain = 0
KCL2 032029Z 35005KT 22/20 A3012 RMK A01 T02230201  RH  087%=      5-min Rain = 0
KCL2 032030Z 35004KT 22/20 A3012 RMK A01 T02240199  RH  086%=      5-min Rain = 0
KCL2 032031Z 35004KT 22/20 A3012 RMK A01 T02240195  RH  084%=      5-min Rain = 0
KCL2 032032Z 34004KT 22/20 A3012 RMK A01 T02240196  RH  084%=      5-min Rain = 0
KCL2 032033Z 34005KT 23/20 A3012 RMK A01 T02250196  RH  083%=      5-min Rain = 0
KCL2 032034Z 34004KT 23/19 A3012 RMK A01 T02260194  RH  082%=      5-min Rain = 0
KCL2 032035Z 33003KT 23/20 A3012 RMK A01 T02260195  RH  083%=      5-min Rain = 0
KCL2 032036Z 32002KT 23/20 A3012 RMK A01 T02270201  RH  085%=      5-min Rain = 0
KCL2 032037Z 32003KT 23/21 A3012 RMK A01 T02290205  RH  086%=      5-min Rain = 0
KCL2 032038Z 31003KT 23/20 A3012 RMK A01 T02290204  RH  085%=      5-min Rain = 0
KCL2 032039Z 31004KT 23/20 A3012 RMK A01 T02290198  RH  082%=      5-min Rain = 0
KCL2 032040Z 30003KT 23/20 A3011 RMK A01 T02300201  RH  084%=      5-min Rain = 0
KCL2 032041Z 29002KT 23/20 A3011 RMK A01 T02300200  RH  083%=      5-min Rain = 0
KCL2 032042Z 29002KT 23/20 A3011 RMK A01 T02310203  RH  084%=      5-min Rain = 0
KCL2 032043Z 28002KT 23/20 A3011 RMK A01 T02310203  RH  084%=      5-min Rain = 0
KCL2 032044Z 28002KT 23/21 A3011 RMK A01 T02320206  RH  085%=      5-min Rain = 0
KCL2 032045Z 27002KT 23/21 A3011 RMK A01 T02320206  RH  085%=      5-min Rain = 0
KCL2 032046Z 29003KT 23/20 A3011 RMK A01 T02330204  RH  083%=      5-min Rain = 0
KCL2 032047Z 28002KT 23/20 A3011 RMK A01 T02330201  RH  082%=      5-min Rain = 0
KCL2 032048Z 29001KT 23/20 A3011 RMK A01 T02330200  RH  082%=      5-min Rain = 0.01
KCL2 032049Z 29001KT 23/20 A3011 RMK A01 T02330204  RH  084%=      5-min Rain = 0
KCL2 032050Z 31002KT 23/21 A3011 RMK A01 T02340207  RH  085%=      5-min Rain = 0
KCL2 032051Z 32001KT 23/20 A3011 RMK A01 T02340203  RH  083%=      5-min Rain = 0
KCL2 032052Z 32002KT 23/20 A3011 RMK A01 T02340203  RH  083%=      5-min Rain = 0
KCL2 032053Z 32002KT 23/20 A3011 RMK A01 T02340198  RH  080%=      5-min Rain = 0
KCL2 032054Z 33000KT 24/20 A3011 RMK A01 T02350200  RH  081%=      5-min Rain = 0
KCL2 032055Z 29001KT 24/20 A3011 RMK A01 T02350200  RH  081%=      5-min Rain = 0
KCL2 032056Z 30000KT 24/20 A3011 RMK A01 T02360198  RH  079%=      5-min Rain = 0
KCL2 032057Z 00000KT 24/19 A301 RMK A01 T02360192  RH  076%=      5-min Rain = 0
KCL2 032058Z 00000KT 24/19 A301 RMK A01 T02370193  RH  076%=      5-min Rain = 0
KCL2 032059Z 15000KT 24/20 A301 RMK A01 T02380196  RH  077%=      5-min Rain = 0
KCL2 032100Z 15000KT 24/20 A301 RMK A01 T02400200  RH  079%=      5-min Rain = 0
KCL2 032101Z 18000KT 24/20 A301 RMK A01 T02410199  RH  077%=      5-min Rain = 0
KCL2 032102Z 15000KT 24/20 A301 RMK A01 T02410197  RH  076%=      5-min Rain = 0
KCL2 032103Z 16000KT 24/20 A301 RMK A01 T02420199  RH  077%=      5-min Rain = 0
KCL2 032104Z 15000KT 24/20 A301 RMK A01 T02430201  RH  077%=      5-min Rain = 0
KCL2 032105Z 15000KT 24/20 A301 RMK A01 T02440203  RH  078%=      5-min Rain = 0
KCL2 032106Z 00000KT 25/20 A301 RMK A01 T02450197  RH  075%=      5-min Rain = 0
KCL2 032107Z 19000KT 24/19 A301 RMK A01 T02440194  RH  073%=      5-min Rain = 0
KCL2 032108Z 19000KT 25/20 A301 RMK A01 T02450198  RH  075%=      5-min Rain = 0
KCL2 032109Z 20000KT 25/20 A301 RMK A01 T02460200  RH  075%=      5-min Rain = 0
KCL2 032110Z 23000KT 25/20 A301 RMK A01 T02460198  RH  075%=      5-min Rain = 0
KCL2 032111Z 23000KT 25/20 A301 RMK A01 T02460198  RH  075%=      5-min Rain = 0
KCL2 032112Z 23001KT 25/20 A301 RMK A01 T02470196  RH  074%=      5-min Rain = 0
KCL2 032113Z 23000KT 25/20 A301 RMK A01 T02470202  RH  076%=      5-min Rain = 0
KCL2 032114Z 25001KT 25/21 A301 RMK A01 T02490205  RH  077%=      5-min Rain = 0
KCL2 032115Z 24001KT 25/20 A3009 RMK A01 T02490199  RH  074%=      5-min Rain = 0
KCL2 032116Z 21001KT 25/20 A3009 RMK A01 T02490201  RH  075%=      5-min Rain = 0
KCL2 032117Z 21002KT 25/20 A3009 RMK A01 T02480201  RH  075%=      5-min Rain = 0
KCL2 032118Z 21001KT 25/20 A3009 RMK A01 T02480201  RH  075%=      5-min Rain = 0
KCL2 032119Z 20002KT 25/20 A3009 RMK A01 T02480199  RH  074%=      5-min Rain = 0
KCL2 032120Z 18002KT 25/20 A3009 RMK A01 T02470199  RH  074%=      5-min Rain = 0
KCL2 032121Z 16002KT 25/20 A3009 RMK A01 T02470199  RH  075%=      5-min Rain = 0
KCL2 032122Z 15003KT 25/20 A3009 RMK A01 T02480197  RH  073%=      5-min Rain = 0
KCL2 032123Z 15003KT 25/20 A3009 RMK A01 T02480195  RH  072%=      5-min Rain = 0
KCL2 032124Z 15003KT 25/20 A3008 RMK A01 T02490199  RH  074%=      5-min Rain = 0
KCL2 032125Z 14002KT 25/20 A3008 RMK A01 T02500204  RH  076%=      5-min Rain = 0
KCL2 032126Z 15002KT 25/20 A3008 RMK A01 T02500195  RH  071%=      5-min Rain = 0
KCL2 032127Z 16001KT 25/19 A3008 RMK A01 T02500192  RH  070%=      5-min Rain = 0
KCL2 032128Z 18001KT 25/19 A3008 RMK A01 T02510194  RH  071%=      5-min Rain = 0
KCL2 032129Z 17001KT 25/20 A3008 RMK A01 T02520201  RH  073%=      5-min Rain = 0
KCL2 032130Z 17001KT 25/20 A3008 RMK A01 T02530204  RH  074%=      5-min Rain = 0
KCL2 032131Z 16002KT 25/20 A3008 RMK A01 T02530200  RH  072%=      5-min Rain = 0
KCL2 032132Z 15002KT 25/20 A3008 RMK A01 T02530196  RH  070%=      5-min Rain = 0
KCL2 032133Z 16003KT 25/19 A3008 RMK A01 T02530193  RH  069%=      5-min Rain = 0
KCL2 032134Z 15003KT 25/19 A3008 RMK A01 T02540190  RH  068%=      5-min Rain = 0
KCL2 032135Z 16003KT 26/20 A3008 RMK A01 T02550195  RH  069%=      5-min Rain = 0
KCL2 032136Z 16003KT 26/20 A3008 RMK A01 T02550199  RH  071%=      5-min Rain = 0
KCL2 032137Z 16004KT 26/20 A3008 RMK A01 T02560200  RH  071%=      5-min Rain = 0
KCL2 032138Z 15004KT 26/20 A3008 RMK A01 T02560202  RH  072%=      5-min Rain = 0
KCL2 032139Z 14005KT 26/20 A3007 RMK A01 T02560198  RH  070%=      5-min Rain = 0
KCL2 032140Z 14005KT 26/20 A3007 RMK A01 T02560198  RH  070%=      5-min Rain = 0
KCL2 032141Z 14005KT 26/20 A3007 RMK A01 T02560199  RH  071%=      5-min Rain = 0
KCL2 032142Z 14005KT 26/20 A3007 RMK A01 T02560201  RH  072%=      5-min Rain = 0
KCL2 032143Z 13006KT 26/20 A3007 RMK A01 T02560196  RH  069%=      5-min Rain = 0
KCL2 032144Z 13005KT 26/20 A3007 RMK A01 T02560198  RH  070%=      5-min Rain = 0
KCL2 032145Z 13006KT 26/20 A3007 RMK A01 T02560195  RH  069%=      5-min Rain = 0
KCL2 032146Z 14005KT 26/19 A3007 RMK A01 T02570191  RH  067%=      5-min Rain = 0
KCL2 032147Z 14005KT 26/19 A3007 RMK A01 T02570188  RH  066%=      5-min Rain = 0
KCL2 032148Z 14004KT 26/19 A3007 RMK A01 T02580187  RH  065%=      5-min Rain = 0
KCL2 032149Z 14004KT 26/19 A3007 RMK A01 T02600186  RH  064%=      5-min Rain = 0
KCL2 032150Z 13004KT 26/19 A3007 RMK A01 T02610185  RH  063%=      5-min Rain = 0
KCL2 032151Z 12004KT 26/19 A3007 RMK A01 T02630192  RH  065%=      5-min Rain = 0
KCL2 032152Z 12003KT 26/19 A3007 RMK A01 T02630190  RH  064%=      5-min Rain = 0
KCL2 032153Z 13003KT 26/19 A3007 RMK A01 T02640187  RH  063%=      5-min Rain = 0
KCL2 032154Z 13003KT 27/19 A3007 RMK A01 T02650187  RH  062%=      5-min Rain = 0
KCL2 032155Z 12002KT 27/19 A3007 RMK A01 T02660187  RH  062%=      5-min Rain = 0
KCL2 032156Z 11002KT 27/18 A3007 RMK A01 T02680182  RH  059%=      5-min Rain = 0
KCL2 032157Z 10003KT 27/19 A3006 RMK A01 T02700188  RH  061%=      5-min Rain = 0
KCL2 032158Z 10004KT 27/18 A3006 RMK A01 T02710184  RH  059%=      5-min Rain = 0
KCL2 032159Z 11004KT 27/18 A3006 RMK A01 T02720179  RH  057%=      5-min Rain = 0
KCL2 032200Z 11005KT 27/18 A3006 RMK A01 T02720175  RH  055%=      5-min Rain = 0
KCL2 032201Z 12004KT 27/18 A3006 RMK A01 T02730180  RH  057%=      5-min Rain = 0
KCL2 032202Z 11004KT 28/19 A3006 RMK A01 T02750186  RH  058%=      5-min Rain = 0
KCL2 032203Z 12005KT 28/18 A3006 RMK A01 T02770179  RH  055%=      5-min Rain = 0
KCL2 032204Z 12005KT 28/19 A3006 RMK A01 T02770185  RH  057%=      5-min Rain = 0
KCL2 032205Z 12006KT 28/18 A3006 RMK A01 T02770178  RH  055%=      5-min Rain = 0
KCL2 032206Z 12005KT 28/18 A3006 RMK A01 T02760179  RH  055%=      5-min Rain = 0
KCL2 032207Z 13005KT 28/18 A3006 RMK A01 T02760183  RH  057%=      5-min Rain = 0
KCL2 032208Z 13005KT 28/18 A3006 RMK A01 T02760181  RH  056%=      5-min Rain = 0
KCL2 032209Z 13006KT 28/18 A3006 RMK A01 T02760180  RH  056%=      5-min Rain = 0
KCL2 032210Z 13005KT 28/18 A3006 RMK A01 T02760181  RH  056%=      5-min Rain = 0
KCL2 032211Z 13005KT 28/19 A3006 RMK A01 T02770185  RH  057%=      5-min Rain = 0
KCL2 032212Z 12005KT 28/18 A3006 RMK A01 T02770182  RH  056%=      5-min Rain = 0
KCL2 032213Z 13005KT 28/18 A3006 RMK A01 T02770181  RH  056%=      5-min Rain = 0
KCL2 032214Z 12006KT 28/18 A3006 RMK A01 T02770179  RH  055%=      5-min Rain = 0
KCL2 032215Z 13004KT 28/18 A3006 RMK A01 T02770184  RH  057%=      5-min Rain = 0
KCL2 032216Z 13005KT 28/18 A3006 RMK A01 T02770182  RH  056%=      5-min Rain = 0
KCL2 032217Z 12005KT 28/18 A3006 RMK A01 T02770178  RH  055%=      5-min Rain = 0
KCL2 032218Z 13005KT 28/18 A3006 RMK A01 T02760183  RH  057%=      5-min Rain = 0
KCL2 032219Z 12005KT 28/18 A3006 RMK A01 T02760184  RH  057%=      5-min Rain = 0
KCL2 032220Z 13004KT 28/18 A3006 RMK A01 T02780183  RH  056%=      5-min Rain = 0
KCL2 032221Z 12004KT 28/19 A3006 RMK A01 T02800185  RH  056%=      5-min Rain = 0
KCL2 032222Z 12004KT 28/19 A3006 RMK A01 T02810187  RH  057%=      5-min Rain = 0
KCL2 032223Z 12004KT 28/18 A3006 RMK A01 T02830180  RH  054%=      5-min Rain = 0
KCL2 032224Z 12004KT 28/18 A3005 RMK A01 T02830177  RH  052%=      5-min Rain = 0
KCL2 032225Z 13005KT 28/17 A3006 RMK A01 T02840173  RH  051%=      5-min Rain = 0
KCL2 032226Z 12005KT 28/17 A3005 RMK A01 T02840173  RH  051%=      5-min Rain = 0
KCL2 032227Z 12006KT 28/18 A3005 RMK A01 T02840178  RH  053%=      5-min Rain = 0
KCL2 032228Z 12005KT 29/17 A3005 RMK A01 T02850171  RH  050%=      5-min Rain = 0
KCL2 032229Z 11006KT 29/17 A3005 RMK A01 T02860172  RH  050%=      5-min Rain = 0
KCL2 032230Z 12005KT 29/18 A3005 RMK A01 T02870178  RH  052%=      5-min Rain = 0
KCL2 032231Z 12005KT 29/17 A3005 RMK A01 T02880170  RH  049%=      5-min Rain = 0
KCL2 032232Z 13004KT 29/17 A3005 RMK A01 T02890169  RH  048%=      5-min Rain = 0
KCL2 032233Z 12005KT 29/17 A3005 RMK A01 T02910174  RH  049%=      5-min Rain = 0
KCL2 032234Z 13005KT 29/17 A3005 RMK A01 T02910169  RH  048%=      5-min Rain = 0
KCL2 032235Z 13005KT 29/17 A3005 RMK A01 T02910174  RH  049%=      5-min Rain = 0
KCL2 032236Z 14005KT 29/17 A3005 RMK A01 T02920169  RH  048%=      5-min Rain = 0
KCL2 032237Z 15005KT 29/17 A3005 RMK A01 T02920171  RH  048%=      5-min Rain = 0
KCL2 032238Z 15006KT 29/17 A3005 RMK A01 T02900169  RH  048%=      5-min Rain = 0
KCL2 032239Z 14005KT 29/17 A3005 RMK A01 T02890170  RH  049%=      5-min Rain = 0
KCL2 032240Z 16004KT 29/18 A3005 RMK A01 T02880175  RH  050%=      5-min Rain = 0
KCL2 032241Z 16004KT 29/17 A3005 RMK A01 T02880172  RH  050%=      5-min Rain = 0
KCL2 032242Z 16005KT 29/17 A3005 RMK A01 T02880174  RH  050%=      5-min Rain = 0
KCL2 032243Z 16006KT 29/17 A3005 RMK A01 T02880169  RH  048%=      5-min Rain = 0
KCL2 032244Z 16006KT 29/17 A3005 RMK A01 T02880169  RH  049%=      5-min Rain = 0
KCL2 032245Z 16006KT 29/17 A3005 RMK A01 T02880166  RH  048%=      5-min Rain = 0
KCL2 032246Z 15006KT 29/17 A3005 RMK A01 T02880169  RH  049%=      5-min Rain = 0
KCL2 032247Z 14006KT 29/17 A3005 RMK A01 T02870171  RH  049%=      5-min Rain = 0
KCL2 032248Z 14005KT 29/17 A3005 RMK A01 T02870172  RH  050%=      5-min Rain = 0
KCL2 032249Z 14004KT 29/17 A3005 RMK A01 T02880172  RH  050%=      5-min Rain = 0
KCL2 032250Z 15005KT 29/17 A3005 RMK A01 T02880172  RH  050%=      5-min Rain = 0
KCL2 032251Z 15004KT 29/16 A3005 RMK A01 T02890164  RH  047%=      5-min Rain = 0
KCL2 032252Z 14004KT 29/17 A3005 RMK A01 T02890167  RH  048%=      5-min Rain = 0
KCL2 032253Z 15004KT 29/17 A3005 RMK A01 T02890169  RH  048%=      5-min Rain = 0
KCL2 032254Z 14005KT 29/17 A3005 RMK A01 T02890170  RH  049%=      5-min Rain = 0
KCL2 032255Z 15006KT 29/16 A3005 RMK A01 T02890164  RH  047%=      5-min Rain = 0
KCL2 032256Z 15005KT 29/17 A3005 RMK A01 T02880168  RH  048%=      5-min Rain = 0
KCL2 032257Z 16004KT 29/17 A3005 RMK A01 T02880166  RH  048%=      5-min Rain = 0
KCL2 032258Z 15004KT 29/17 A3005 RMK A01 T02880170  RH  049%=      5-min Rain = 0
KCL2 032259Z 13005KT 29/17 A3005 RMK A01 T02900167  RH  048%=      5-min Rain = 0
KCL2 032300Z 12004KT 29/17 A3005 RMK A01 T02890168  RH  048%=      5-min Rain = 0
KCL2 032301Z 12005KT 29/17 A3005 RMK A01 T02890170  RH  049%=      5-min Rain = 0
KCL2 032302Z 12003KT 29/17 A3005 RMK A01 T02890172  RH  049%=      5-min Rain = 0
KCL2 032303Z 12002KT 29/17 A3005 RMK A01 T02890170  RH  048%=      5-min Rain = 0
KCL2 032304Z 12004KT 29/17 A3005 RMK A01 T02890172  RH  049%=      5-min Rain = 0
KCL2 032305Z 13004KT 29/17 A3005 RMK A01 T02900172  RH  049%=      5-min Rain = 0
KCL2 032306Z 12005KT 29/18 A3005 RMK A01 T02910175  RH  050%=      5-min Rain = 0
KCL2 032307Z 13004KT 29/18 A3005 RMK A01 T02910177  RH  050%=      5-min Rain = 0
KCL2 032308Z 15004KT 29/17 A3005 RMK A01 T02920174  RH  049%=      5-min Rain = 0
KCL2 032309Z 12002KT 29/18 A3005 RMK A01 T02920180  RH  051%=      5-min Rain = 0
KCL2 032310Z 13006KT 29/18 A3005 RMK A01 T02940176  RH  049%=      5-min Rain = 0
KCL2 032311Z 13007KT 30/17 A3005 RMK A01 T02950172  RH  048%=      5-min Rain = 0
KCL2 032312Z 15006KT 30/17 A3005 RMK A01 T02950172  RH  047%=      5-min Rain = 0
KCL2 032313Z 15005KT 30/17 A3005 RMK A01 T02960168  RH  046%=      5-min Rain = 0
KCL2 032314Z 13006KT 30/17 A3005 RMK A01 T02960171  RH  047%=      5-min Rain = 0
KCL2 032315Z 13005KT 30/17 A3005 RMK A01 T02970165  RH  045%=      5-min Rain = 0
KCL2 032316Z 12005KT 30/17 A3005 RMK A01 T02970168  RH  046%=      5-min Rain = 0
KCL2 032317Z 13006KT 30/17 A3005 RMK A01 T02970167  RH  046%=      5-min Rain = 0
KCL2 032318Z 13005KT 30/17 A3005 RMK A01 T02960171  RH  047%=      5-min Rain = 0
KCL2 032319Z 13007KT 30/17 A3005 RMK A01 T02960169  RH  046%=      5-min Rain = 0
KCL2 032320Z 16005KT 30/17 A3005 RMK A01 T02970172  RH  047%=      5-min Rain = 0
KCL2 032321Z 17004KT 30/17 A3005 RMK A01 T02980173  RH  047%=      5-min Rain = 0
KCL2 032322Z 18005KT 30/17 A3004 RMK A01 T02980168  RH  045%=      5-min Rain = 0
KCL2 032323Z 17005KT 30/17 A3004 RMK A01 T02980172  RH  047%=      5-min Rain = 0
KCL2 032324Z 17006KT 30/17 A3004 RMK A01 T02980165  RH  045%=      5-min Rain = 0
KCL2 032325Z 17005KT 30/17 A3004 RMK A01 T02970167  RH  045%=      5-min Rain = 0
KCL2 032326Z 18007KT 30/17 A3004 RMK A01 T02970166  RH  045%=      5-min Rain = 0
KCL2 032327Z 16007KT 30/16 A3004 RMK A01 T02970160  RH  044%=      5-min Rain = 0
KCL2 032328Z 16007KT 30/16 A3004 RMK A01 T02970155  RH  042%=      5-min Rain = 0
KCL2 032329Z 16007KT 30/15 A3004 RMK A01 T02960154  RH  042%=      5-min Rain = 0
KCL2 032330Z 15006KT 30/15 A3004 RMK A01 T02960152  RH  042%=      5-min Rain = 0
KCL2 032331Z 14007KT 30/16 A3004 RMK A01 T02960157  RH  043%=      5-min Rain = 0
KCL2 032332Z 15007KT 30/16 A3004 RMK A01 T02960157  RH  043%=      5-min Rain = 0
KCL2 032333Z 14007KT 30/16 A3004 RMK A01 T02960156  RH  043%=      5-min Rain = 0
KCL2 032334Z 15006KT 30/15 A3004 RMK A01 T02960154  RH  042%=      5-min Rain = 0
KCL2 032335Z 15005KT 30/16 A3004 RMK A01 T02960159  RH  044%=      5-min Rain = 0
KCL2 032336Z 16005KT 30/16 A3004 RMK A01 T02970161  RH  044%=      5-min Rain = 0
KCL2 032337Z 15004KT 30/16 A3004 RMK A01 T02980164  RH  045%=      5-min Rain = 0
KCL2 032338Z 16006KT 30/16 A3004 RMK A01 T02980164  RH  044%=      5-min Rain = 0
KCL2 032339Z 16006KT 30/17 A3004 RMK A01 T02980166  RH  045%=      5-min Rain = 0
KCL2 032340Z 16007KT 30/17 A3004 RMK A01 T02990165  RH  044%=      5-min Rain = 0
KCL2 032341Z 17006KT 30/17 A3004 RMK A01 T02980169  RH  046%=      5-min Rain = 0
KCL2 032342Z 17006KT 30/17 A3004 RMK A01 T02980170  RH  046%=      5-min Rain = 0
KCL2 032343Z 17005KT 30/17 A3004 RMK A01 T02980169  RH  046%=      5-min Rain = 0
KCL2 032344Z 16006KT 30/17 A3004 RMK A01 T02990171  RH  046%=      5-min Rain = 0
KCL2 032345Z 17007KT 30/17 A3004 RMK A01 T02990167  RH  045%=      5-min Rain = 0
KCL2 032346Z 15008KT 30/17 A3004 RMK A01 T02990168  RH  045%=      5-min Rain = 0
KCL2 032347Z 15008KT 30/17 A3004 RMK A01 T02980166  RH  045%=      5-min Rain = 0
KCL2 032348Z 15007KT 30/16 A3004 RMK A01 T02970164  RH  045%=      5-min Rain = 0
KCL2 032349Z 14007KT 30/16 A3004 RMK A01 T02970164  RH  045%=      5-min Rain = 0
KCL2 032350Z 14006KT 30/17 A3004 RMK A01 T02970167  RH  045%=      5-min Rain = 0
KCL2 032351Z 15006KT 30/17 A3004 RMK A01 T02970166  RH  045%=      5-min Rain = 0
KCL2 032352Z 14007KT 30/17 A3004 RMK A01 T02970165  RH  045%=      5-min Rain = 0
KCL2 032353Z 15008KT 30/16 A3004 RMK A01 T02970161  RH  044%=      5-min Rain = 0
KCL2 032354Z 15007KT 30/16 A3004 RMK A01 T02960160  RH  044%=      5-min Rain = 0
KCL2 032355Z 15006KT 30/16 A3004 RMK A01 T02960161  RH  044%=      5-min Rain = 0
KCL2 032356Z 16006KT 30/16 A3004 RMK A01 T02960162  RH  044%=      5-min Rain = 0
KCL2 032357Z 15006KT 30/17 A3004 RMK A01 T02960165  RH  045%=      5-min Rain = 0
KCL2 032358Z 14006KT 30/16 A3004 RMK A01 T02960160  RH  044%=      5-min Rain = 0
KCL2 032359Z 16008KT 30/16 A3004 RMK A01 T02960161  RH  044%=      5-min Rain = 0
KCL2 040000Z 16007KT 30/16 A3004 RMK A01 T02960158  RH  043%=      5-min Rain = 0
KCL2 040001Z 16006KT 30/16 A3004 RMK A01 T02960159  RH  044%=      5-min Rain = 0
KCL2 040002Z 16006KT 30/16 A3004 RMK A01 T02950159  RH  044%=      5-min Rain = 0
KCL2 040003Z 15006KT 30/16 A3004 RMK A01 T02950161  RH  044%=      5-min Rain = 0
KCL2 040004Z 14007KT 30/16 A3004 RMK A01 T02950159  RH  044%=      5-min Rain = 0
KCL2 040005Z 14007KT 30/16 A3004 RMK A01 T02950160  RH  044%=      5-min Rain = 0
KCL2 040006Z 15007KT 29/16 A3004 RMK A01 T02940159  RH  044%=      5-min Rain = 0
KCL2 040007Z 15007KT 29/16 A3004 RMK A01 T02940159  RH  044%=      5-min Rain = 0
KCL2 040008Z 15007KT 29/16 A3003 RMK A01 T02930163  RH  045%=      5-min Rain = 0
KCL2 040009Z 15007KT 29/16 A3003 RMK A01 T02930163  RH  045%=      5-min Rain = 0
KCL2 040010Z 15008KT 29/16 A3003 RMK A01 T02930164  RH  046%=      5-min Rain = 0
KCL2 040011Z 16007KT 29/17 A3003 RMK A01 T02930165  RH  046%=      5-min Rain = 0
KCL2 040012Z 15006KT 29/17 A3003 RMK A01 T02930166  RH  046%=      5-min Rain = 0
KCL2 040013Z 15006KT 29/16 A3003 RMK A01 T02920164  RH  046%=      5-min Rain = 0
KCL2 040014Z 15005KT 29/17 A3003 RMK A01 T02920165  RH  046%=      5-min Rain = 0
KCL2 040015Z 14006KT 29/16 A3003 RMK A01 T02930162  RH  045%=      5-min Rain = 0
KCL2 040016Z 15005KT 29/16 A3003 RMK A01 T02920163  RH  046%=      5-min Rain = 0
KCL2 040017Z 14005KT 29/17 A3003 RMK A01 T02930165  RH  046%=      5-min Rain = 0
KCL2 040018Z 15008KT 29/16 A3004 RMK A01 T02920156  RH  044%=      5-min Rain = 0
KCL2 040019Z 15007KT 29/16 A3004 RMK A01 T02910157  RH  044%=      5-min Rain = 0
KCL2 040020Z 14008KT 29/16 A3004 RMK A01 T02900157  RH  044%=      5-min Rain = 0
KCL2 040021Z 14007KT 29/16 A3004 RMK A01 T02900157  RH  044%=      5-min Rain = 0
KCL2 040022Z 15007KT 29/16 A3004 RMK A01 T02890157  RH  045%=      5-min Rain = 0
KCL2 040023Z 15005KT 29/16 A3004 RMK A01 T02880162  RH  046%=      5-min Rain = 0
KCL2 040024Z 15006KT 29/16 A3004 RMK A01 T02880159  RH  046%=      5-min Rain = 0
KCL2 040025Z 15007KT 29/16 A3004 RMK A01 T02880161  RH  046%=      5-min Rain = 0
KCL2 040026Z 15006KT 29/16 A3004 RMK A01 T02870159  RH  046%=      5-min Rain = 0
KCL2 040027Z 15006KT 29/16 A3004 RMK A01 T02870161  RH  047%=      5-min Rain = 0
KCL2 040028Z 15006KT 29/16 A3004 RMK A01 T02860163  RH  047%=      5-min Rain = 0
KCL2 040029Z 15006KT 29/16 A3004 RMK A01 T02870161  RH  047%=      5-min Rain = 0
KCL2 040030Z 15006KT 29/16 A3004 RMK A01 T02860161  RH  047%=      5-min Rain = 0
KCL2 040031Z 15005KT 29/16 A3004 RMK A01 T02850163  RH  047%=      5-min Rain = 0
KCL2 040032Z 16007KT 29/16 A3004 RMK A01 T02850162  RH  047%=      5-min Rain = 0
KCL2 040033Z 16006KT 29/16 A3004 RMK A01 T02850162  RH  047%=      5-min Rain = 0
KCL2 040034Z 17006KT 28/17 A3004 RMK A01 T02840165  RH  048%=      5-min Rain = 0
KCL2 040035Z 16006KT 28/17 A3004 RMK A01 T02840165  RH  048%=      5-min Rain = 0
KCL2 040036Z 17006KT 28/17 A3004 RMK A01 T02830166  RH  049%=      5-min Rain = 0
KCL2 040037Z 16007KT 28/17 A3004 RMK A01 T02820166  RH  049%=      5-min Rain = 0
KCL2 040038Z 16007KT 28/17 A3004 RMK A01 T02810167  RH  050%=      5-min Rain = 0
KCL2 040039Z 16008KT 28/16 A3004 RMK A01 T02810164  RH  049%=      5-min Rain = 0
KCL2 040040Z 14007KT 28/16 A3004 RMK A01 T02810164  RH  049%=      5-min Rain = 0
KCL2 040041Z 15006KT 28/17 A3004 RMK A01 T02810166  RH  050%=      5-min Rain = 0
KCL2 040042Z 15006KT 28/17 A3004 RMK A01 T02800166  RH  050%=      5-min Rain = 0
KCL2 040043Z 15006KT 28/17 A3004 RMK A01 T02800169  RH  051%=      5-min Rain = 0
KCL2 040044Z 15006KT 28/17 A3004 RMK A01 T02790168  RH  051%=      5-min Rain = 0
KCL2 040045Z 15007KT 28/17 A3004 RMK A01 T02790169  RH  051%=      5-min Rain = 0
KCL2 040046Z 16006KT 28/17 A3004 RMK A01 T02790169  RH  051%=      5-min Rain = 0
KCL2 040047Z 16005KT 28/17 A3004 RMK A01 T02780171  RH  052%=      5-min Rain = 0
KCL2 040048Z 16005KT 28/17 A3004 RMK A01 T02780172  RH  053%=      5-min Rain = 0
KCL2 040049Z 16006KT 28/17 A3004 RMK A01 T02780171  RH  052%=      5-min Rain = 0
KCL2 040050Z 15005KT 28/17 A3004 RMK A01 T02770170  RH  052%=      5-min Rain = 0
KCL2 040051Z 16006KT 28/17 A3004 RMK A01 T02760171  RH  053%=      5-min Rain = 0
KCL2 040052Z 15007KT 28/17 A3004 RMK A01 T02760170  RH  052%=      5-min Rain = 0
KCL2 040053Z 15006KT 28/17 A3004 RMK A01 T02750170  RH  052%=      5-min Rain = 0
KCL2 040054Z 15006KT 28/17 A3004 RMK A01 T02750170  RH  053%=      5-min Rain = 0
KCL2 040055Z 15005KT 28/17 A3004 RMK A01 T02750170  RH  053%=      5-min Rain = 0
KCL2 040056Z 15005KT 27/17 A3004 RMK A01 T02740172  RH  054%=      5-min Rain = 0
KCL2 040057Z 15006KT 27/17 A3004 RMK A01 T02730171  RH  053%=      5-min Rain = 0
KCL2 040058Z 15007KT 27/17 A3004 RMK A01 T02730171  RH  054%=      5-min Rain = 0
KCL2 040059Z 15006KT 27/17 A3004 RMK A01 T02720171  RH  054%=      5-min Rain = 0
KCL2 040100Z 16006KT 27/17 A3004 RMK A01 T02720172  RH  054%=      5-min Rain = 0
KCL2 040101Z 16006KT 27/17 A3004 RMK A01 T02710174  RH  055%=      5-min Rain = 0
KCL2 040102Z 16005KT 27/17 A3004 RMK A01 T02700174  RH  056%=      5-min Rain = 0
KCL2 040103Z 16005KT 27/18 A3004 RMK A01 T02700176  RH  057%=      5-min Rain = 0
KCL2 040104Z 15005KT 27/18 A3004 RMK A01 T02690175  RH  057%=      5-min Rain = 0
KCL2 040105Z 15005KT 27/18 A3004 RMK A01 T02680175  RH  057%=      5-min Rain = 0
KCL2 040106Z 16005KT 27/18 A3004 RMK A01 T02670176  RH  057%=      5-min Rain = 0
KCL2 040107Z 16005KT 27/18 A3004 RMK A01 T02670176  RH  057%=      5-min Rain = 0
KCL2 040108Z 16005KT 27/18 A3004 RMK A01 T02660176  RH  058%=      5-min Rain = 0
KCL2 040109Z 16006KT 27/18 A3004 RMK A01 T02650177  RH  058%=      5-min Rain = 0
KCL2 040110Z 16005KT 27/18 A3004 RMK A01 T02650178  RH  059%=      5-min Rain = 0
KCL2 040111Z 16005KT 26/18 A3004 RMK A01 T02640178  RH  059%=      5-min Rain = 0
KCL2 040112Z 16006KT 26/18 A3004 RMK A01 T02630179  RH  060%=      5-min Rain = 0
KCL2 040113Z 16005KT 26/18 A3004 RMK A01 T02630179  RH  060%=      5-min Rain = 0
KCL2 040114Z 16006KT 26/18 A3004 RMK A01 T02620179  RH  060%=      5-min Rain = 0
KCL2 040115Z 16006KT 26/18 A3004 RMK A01 T02610179  RH  061%=      5-min Rain = 0
KCL2 040116Z 16006KT 26/18 A3004 RMK A01 T02610180  RH  061%=      5-min Rain = 0
KCL2 040117Z 16006KT 26/18 A3004 RMK A01 T02600180  RH  061%=      5-min Rain = 0
KCL2 040118Z 16007KT 26/18 A3004 RMK A01 T02590180  RH  061%=      5-min Rain = 0
KCL2 040119Z 16006KT 26/18 A3004 RMK A01 T02590180  RH  062%=      5-min Rain = 0
KCL2 040120Z 16007KT 26/18 A3004 RMK A01 T02580180  RH  062%=      5-min Rain = 0
KCL2 040121Z 16007KT 26/18 A3004 RMK A01 T02580181  RH  062%=      5-min Rain = 0
KCL2 040122Z 16007KT 26/18 A3004 RMK A01 T02570181  RH  063%=      5-min Rain = 0
KCL2 040123Z 16007KT 26/18 A3004 RMK A01 T02570181  RH  063%=      5-min Rain = 0
KCL2 040124Z 16007KT 26/18 A3004 RMK A01 T02570181  RH  063%=      5-min Rain = 0
KCL2 040125Z 15006KT 26/18 A3004 RMK A01 T02560182  RH  063%=      5-min Rain = 0
KCL2 040126Z 15006KT 26/18 A3004 RMK A01 T02550182  RH  064%=      5-min Rain = 0
KCL2 040127Z 15007KT 25/18 A3004 RMK A01 T02540182  RH  064%=      5-min Rain = 0
KCL2 040128Z 15007KT 25/18 A3004 RMK A01 T02540181  RH  064%=      5-min Rain = 0
KCL2 040129Z 14007KT 25/18 A3004 RMK A01 T02540182  RH  064%=      5-min Rain = 0
KCL2 040130Z 15007KT 25/18 A3004 RMK A01 T02530183  RH  065%=      5-min Rain = 0
KCL2 040131Z 15007KT 25/18 A3004 RMK A01 T02530182  RH  065%=      5-min Rain = 0
KCL2 040132Z 14008KT 25/18 A3004 RMK A01 T02520181  RH  065%=      5-min Rain = 0
KCL2 040133Z 14007KT 25/18 A3004 RMK A01 T02520180  RH  065%=      5-min Rain = 0
KCL2 040134Z 15008KT 25/18 A3004 RMK A01 T02510180  RH  065%=      5-min Rain = 0
KCL2 040135Z 15008KT 25/18 A3004 RMK A01 T02510180  RH  065%=      5-min Rain = 0
KCL2 040136Z 15007KT 25/18 A3004 RMK A01 T02510180  RH  065%=      5-min Rain = 0
KCL2 040137Z 15007KT 25/18 A3004 RMK A01 T02500180  RH  065%=      5-min Rain = 0
KCL2 040138Z 15007KT 25/18 A3004 RMK A01 T02500180  RH  065%=      5-min Rain = 0
KCL2 040139Z 15006KT 25/18 A3004 RMK A01 T02490180  RH  065%=      5-min Rain = 0
KCL2 040140Z 15007KT 25/18 A3004 RMK A01 T02480180  RH  066%=      5-min Rain = 0
KCL2 040141Z 15007KT 25/18 A3004 RMK A01 T02480180  RH  066%=      5-min Rain = 0
KCL2 040142Z 15008KT 25/18 A3004 RMK A01 T02480180  RH  066%=      5-min Rain = 0
KCL2 040143Z 15008KT 25/18 A3004 RMK A01 T02480180  RH  066%=      5-min Rain = 0
KCL2 040144Z 15008KT 25/18 A3004 RMK A01 T02480180  RH  066%=      5-min Rain = 0
KCL2 040145Z 15007KT 25/18 A3004 RMK A01 T02480180  RH  066%=      5-min Rain = 0
KCL2 040146Z 15007KT 25/18 A3004 RMK A01 T02480180  RH  066%=      5-min Rain = 0
KCL2 040147Z 14007KT 25/18 A3004 RMK A01 T02470181  RH  066%=      5-min Rain = 0
KCL2 040148Z 14008KT 25/18 A3004 RMK A01 T02470181  RH  067%=      5-min Rain = 0
KCL2 040149Z 14009KT 25/18 A3004 RMK A01 T02460181  RH  067%=      5-min Rain = 0
KCL2 040150Z 14008KT 25/18 A3004 RMK A01 T02460182  RH  067%=      5-min Rain = 0
KCL2 040151Z 14007KT 25/18 A3004 RMK A01 T02460182  RH  067%=      5-min Rain = 0
KCL2 040152Z 15007KT 25/18 A3004 RMK A01 T02460182  RH  068%=      5-min Rain = 0
KCL2 040153Z 16008KT 25/18 A3004 RMK A01 T02450182  RH  068%=      5-min Rain = 0
KCL2 040154Z 15007KT 25/18 A3004 RMK A01 T02450183  RH  068%=      5-min Rain = 0
KCL2 040155Z 16007KT 25/18 A3004 RMK A01 T02450183  RH  068%=      5-min Rain = 0
KCL2 040156Z 16007KT 24/18 A3004 RMK A01 T02440183  RH  069%=      5-min Rain = 0
KCL2 040157Z 16007KT 24/18 A3004 RMK A01 T02430182  RH  069%=      5-min Rain = 0
KCL2 040158Z 16008KT 24/18 A3004 RMK A01 T02430182  RH  069%=      5-min Rain = 0
KCL2 040159Z 16008KT 24/18 A3004 RMK A01 T02430183  RH  069%=      5-min Rain = 0
KCL2 040200Z 16008KT 24/18 A3004 RMK A01 T02430183  RH  069%=      5-min Rain = 0
KCL2 040201Z 15008KT 24/18 A3004 RMK A01 T02430183  RH  069%=      5-min Rain = 0
KCL2 040202Z 16008KT 24/18 A3004 RMK A01 T02430183  RH  069%=      5-min Rain = 0
KCL2 040203Z 15007KT 24/18 A3004 RMK A01 T02420184  RH  070%=      5-min Rain = 0
KCL2 040204Z 15008KT 24/18 A3004 RMK A01 T02420183  RH  070%=      5-min Rain = 0
KCL2 040205Z 15006KT 24/18 A3004 RMK A01 T02420184  RH  070%=      5-min Rain = 0
KCL2 040206Z 15006KT 24/18 A3004 RMK A01 T02420184  RH  070%=      5-min Rain = 0
KCL2 040207Z 15006KT 24/18 A3004 RMK A01 T02410184  RH  070%=      5-min Rain = 0
KCL2 040208Z 15007KT 24/18 A3004 RMK A01 T02410184  RH  071%=      5-min Rain = 0
KCL2 040209Z 15007KT 24/18 A3004 RMK A01 T02410184  RH  071%=      5-min Rain = 0
KCL2 040210Z 15007KT 24/19 A3004 RMK A01 T02400185  RH  071%=      5-min Rain = 0
KCL2 040211Z 15007KT 24/19 A3004 RMK A01 T02390185  RH  071%=      5-min Rain = 0
KCL2 040212Z 15007KT 24/19 A3004 RMK A01 T02390185  RH  072%=      5-min Rain = 0
KCL2 040213Z 15007KT 24/19 A3004 RMK A01 T02390185  RH  072%=      5-min Rain = 0
KCL2 040214Z 16008KT 24/19 A3004 RMK A01 T02380185  RH  072%=      5-min Rain = 0
KCL2 040215Z 16007KT 24/19 A3004 RMK A01 T02380186  RH  073%=      5-min Rain = 0
KCL2 040216Z 16007KT 24/19 A3004 RMK A01 T02370186  RH  073%=      5-min Rain = 0
KCL2 040217Z 16008KT 24/19 A3004 RMK A01 T02370186  RH  073%=      5-min Rain = 0
KCL2 040218Z 16007KT 24/19 A3004 RMK A01 T02370187  RH  074%=      5-min Rain = 0
KCL2 040219Z 16007KT 24/19 A3004 RMK A01 T02360187  RH  074%=      5-min Rain = 0
KCL2 040220Z 16007KT 24/19 A3004 RMK A01 T02360187  RH  074%=      5-min Rain = 0
KCL2 040221Z 16007KT 24/19 A3004 RMK A01 T02350187  RH  074%=      5-min Rain = 0
KCL2 040222Z 16007KT 24/19 A3005 RMK A01 T02350188  RH  075%=      5-min Rain = 0
KCL2 040223Z 16008KT 24/19 A3004 RMK A01 T02350187  RH  075%=      5-min Rain = 0
KCL2 040224Z 16007KT 24/19 A3005 RMK A01 T02350187  RH  075%=      5-min Rain = 0
KCL2 040225Z 16007KT 24/19 A3005 RMK A01 T02350188  RH  075%=      5-min Rain = 0
KCL2 040226Z 16007KT 24/19 A3005 RMK A01 T02350188  RH  075%=      5-min Rain = 0
KCL2 040227Z 16007KT 24/19 A3005 RMK A01 T02350188  RH  075%=      5-min Rain = 0
KCL2 040228Z 16007KT 23/19 A3005 RMK A01 T02340188  RH  075%=      5-min Rain = 0
KCL2 040229Z 17008KT 23/19 A3005 RMK A01 T02340188  RH  075%=      5-min Rain = 0
KCL2 040230Z 17006KT 23/19 A3005 RMK A01 T02340188  RH  075%=      5-min Rain = 0
KCL2 040231Z 16007KT 23/19 A3005 RMK A01 T02340188  RH  075%=      5-min Rain = 0
KCL2 040232Z 16007KT 23/19 A3005 RMK A01 T02330188  RH  076%=      5-min Rain = 0
KCL2 040233Z 17007KT 23/19 A3005 RMK A01 T02330188  RH  076%=      5-min Rain = 0
KCL2 040234Z 16006KT 23/19 A3005 RMK A01 T02330188  RH  076%=      5-min Rain = 0
KCL2 040235Z 16006KT 23/19 A3005 RMK A01 T02320188  RH  076%=      5-min Rain = 0
KCL2 040236Z 16006KT 23/19 A3005 RMK A01 T02320188  RH  076%=      5-min Rain = 0
KCL2 040237Z 16008KT 23/19 A3005 RMK A01 T02310188  RH  076%=      5-min Rain = 0
KCL2 040238Z 17007KT 23/19 A3005 RMK A01 T02310188  RH  076%=      5-min Rain = 0
KCL2 040239Z 16007KT 23/19 A3005 RMK A01 T02320188  RH  076%=      5-min Rain = 0
KCL2 040240Z 16007KT 23/19 A3005 RMK A01 T02320188  RH  076%=      5-min Rain = 0
KCL2 040241Z 16007KT 23/19 A3005 RMK A01 T02310188  RH  076%=      5-min Rain = 0
KCL2 040242Z 17006KT 23/19 A3005 RMK A01 T02310188  RH  077%=      5-min Rain = 0
KCL2 040243Z 16006KT 23/19 A3005 RMK A01 T02310188  RH  077%=      5-min Rain = 0
KCL2 040244Z 16007KT 23/19 A3005 RMK A01 T02300188  RH  077%=      5-min Rain = 0
KCL2 040245Z 17007KT 23/19 A3005 RMK A01 T02300188  RH  077%=      5-min Rain = 0
KCL2 040246Z 16008KT 23/19 A3005 RMK A01 T02300188  RH  077%=      5-min Rain = 0
KCL2 040247Z 16007KT 23/19 A3005 RMK A01 T02300187  RH  077%=      5-min Rain = 0
KCL2 040248Z 16006KT 23/19 A3005 RMK A01 T02300188  RH  077%=      5-min Rain = 0
KCL2 040249Z 16007KT 23/19 A3005 RMK A01 T02300188  RH  077%=      5-min Rain = 0
KCL2 040250Z 17007KT 23/19 A3005 RMK A01 T02300188  RH  077%=      5-min Rain = 0
KCL2 040251Z 16007KT 23/19 A3005 RMK A01 T02300187  RH  077%=      5-min Rain = 0
KCL2 040252Z 16007KT 23/19 A3005 RMK A01 T02300188  RH  077%=      5-min Rain = 0
KCL2 040253Z 16007KT 23/19 A3005 RMK A01 T02300188  RH  077%=      5-min Rain = 0
KCL2 040254Z 17007KT 23/19 A3005 RMK A01 T02300188  RH  077%=      5-min Rain = 0
KCL2 040255Z 17007KT 23/19 A3005 RMK A01 T02300188  RH  077%=      5-min Rain = 0
KCL2 040256Z 17006KT 23/19 A3005 RMK A01 T02290188  RH  077%=      5-min Rain = 0
KCL2 040257Z 17008KT 23/19 A3005 RMK A01 T02290187  RH  077%=      5-min Rain = 0
KCL2 040258Z 17008KT 23/19 A3005 RMK A01 T02290187  RH  077%=      5-min Rain = 0
KCL2 040259Z 17008KT 23/19 A3005 RMK A01 T02290187  RH  077%=      5-min Rain = 0
KCL2 040300Z 17008KT 23/19 A3005 RMK A01 T02290187  RH  077%=      5-min Rain = 0
KCL2 040301Z 17007KT 23/19 A3005 RMK A01 T02290187  RH  077%=      5-min Rain = 0
KCL2 040302Z 17007KT 23/19 A3006 RMK A01 T02290187  RH  077%=      5-min Rain = 0
KCL2 040303Z 18008KT 23/19 A3006 RMK A01 T02290187  RH  077%=      5-min Rain = 0
KCL2 040304Z 17008KT 23/19 A3006 RMK A01 T02290187  RH  077%=      5-min Rain = 0
KCL2 040305Z 17007KT 23/19 A3006 RMK A01 T02290186  RH  077%=      5-min Rain = 0
KCL2 040306Z 17008KT 23/19 A3006 RMK A01 T02290187  RH  077%=      5-min Rain = 0
KCL2 040307Z 17008KT 23/19 A3006 RMK A01 T02290187  RH  077%=      5-min Rain = 0
KCL2 040308Z 17007KT 23/19 A3006 RMK A01 T02290187  RH  077%=      5-min Rain = 0
KCL2 040309Z 17007KT 23/19 A3006 RMK A01 T02290187  RH  077%=      5-min Rain = 0
KCL2 040310Z 17007KT 23/19 A3006 RMK A01 T02280187  RH  077%=      5-min Rain = 0
KCL2 040311Z 17008KT 23/19 A3006 RMK A01 T02280187  RH  077%=      5-min Rain = 0
KCL2 040312Z 17007KT 23/19 A3006 RMK A01 T02280187  RH  077%=      5-min Rain = 0
KCL2 040313Z 17007KT 23/19 A3006 RMK A01 T02280186  RH  077%=      5-min Rain = 0
KCL2 040314Z 17006KT 23/19 A3007 RMK A01 T02280186  RH  078%=      5-min Rain = 0
KCL2 040315Z 18008KT 23/19 A3007 RMK A01 T02270187  RH  078%=      5-min Rain = 0
KCL2 040316Z 17008KT 23/19 A3007 RMK A01 T02270186  RH  078%=      5-min Rain = 0
KCL2 040317Z 18008KT 23/19 A3007 RMK A01 T02270186  RH  078%=      5-min Rain = 0
KCL2 040318Z 18008KT 23/19 A3007 RMK A01 T02270186  RH  078%=      5-min Rain = 0
KCL2 040319Z 18008KT 23/19 A3007 RMK A01 T02270186  RH  078%=      5-min Rain = 0
KCL2 040320Z 18008KT 23/19 A3007 RMK A01 T02260186  RH  078%=      5-min Rain = 0
KCL2 040321Z 17007KT 23/19 A3007 RMK A01 T02260186  RH  078%=      5-min Rain = 0
KCL2 040322Z 17008KT 23/19 A3007 RMK A01 T02260185  RH  077%=      5-min Rain = 0
KCL2 040323Z 17008KT 23/19 A3007 RMK A01 T02280185  RH  077%=      5-min Rain = 0
KCL2 040324Z 17008KT 23/19 A3007 RMK A01 T02280185  RH  077%=      5-min Rain = 0
KCL2 040325Z 17008KT 23/19 A3007 RMK A01 T02280185  RH  077%=      5-min Rain = 0
KCL2 040326Z 17008KT 23/19 A3007 RMK A01 T02280185  RH  077%=      5-min Rain = 0
KCL2 040327Z 17008KT 23/19 A3007 RMK A01 T02280185  RH  077%=      5-min Rain = 0
KCL2 040328Z 17008KT 23/19 A3007 RMK A01 T02270185  RH  077%=      5-min Rain = 0
KCL2 040329Z 17008KT 23/19 A3007 RMK A01 T02270185  RH  077%=      5-min Rain = 0
KCL2 040330Z 17007KT 23/18 A3007 RMK A01 T02270184  RH  077%=      5-min Rain = 0
KCL2 040331Z 17008KT 23/18 A3007 RMK A01 T02270184  RH  077%=      5-min Rain = 0
KCL2 040332Z 17007KT 23/18 A3007 RMK A01 T02270183  RH  076%=      5-min Rain = 0
KCL2 040333Z 17007KT 23/18 A3007 RMK A01 T02270183  RH  076%=      5-min Rain = 0
KCL2 040334Z 17007KT 23/18 A3008 RMK A01 T02270183  RH  076%=      5-min Rain = 0
KCL2 040335Z 17008KT 23/18 A3007 RMK A01 T02270183  RH  076%=      5-min Rain = 0
KCL2 040336Z 17007KT 23/18 A3008 RMK A01 T02270183  RH  076%=      5-min Rain = 0
KCL2 040337Z 17007KT 23/18 A3008 RMK A01 T02270182  RH  076%=      5-min Rain = 0
KCL2 040338Z 17007KT 23/18 A3008 RMK A01 T02270183  RH  076%=      5-min Rain = 0
KCL2 040339Z 17008KT 23/18 A3008 RMK A01 T02260182  RH  076%=      5-min Rain = 0
KCL2 040340Z 17007KT 23/18 A3008 RMK A01 T02270183  RH  076%=      5-min Rain = 0
KCL2 040341Z 17007KT 23/18 A3008 RMK A01 T02260182  RH  076%=      5-min Rain = 0
KCL2 040342Z 17008KT 23/18 A3008 RMK A01 T02260182  RH  076%=      5-min Rain = 0
KCL2 040343Z 17007KT 23/18 A3008 RMK A01 T02260182  RH  076%=      5-min Rain = 0
KCL2 040344Z 18006KT 23/18 A3008 RMK A01 T02250182  RH  076%=      5-min Rain = 0
KCL2 040345Z 17007KT 23/18 A3008 RMK A01 T02250182  RH  076%=      5-min Rain = 0
KCL2 040346Z 18007KT 23/18 A3008 RMK A01 T02250182  RH  077%=      5-min Rain = 0
KCL2 040347Z 17007KT 22/18 A3008 RMK A01 T02240181  RH  076%=      5-min Rain = 0
KCL2 040348Z 17006KT 23/18 A3008 RMK A01 T02250181  RH  076%=      5-min Rain = 0
KCL2 040349Z 17006KT 23/18 A3008 RMK A01 T02250181  RH  076%=      5-min Rain = 0
KCL2 040350Z 17006KT 23/18 A3008 RMK A01 T02250181  RH  076%=      5-min Rain = 0
KCL2 040351Z 17006KT 22/18 A3008 RMK A01 T02240181  RH  077%=      5-min Rain = 0
KCL2 040352Z 17005KT 22/18 A3008 RMK A01 T02240181  RH  077%=      5-min Rain = 0
KCL2 040353Z 17006KT 22/18 A3008 RMK A01 T02240181  RH  077%=      5-min Rain = 0
KCL2 040354Z 17006KT 22/18 A3008 RMK A01 T02230181  RH  077%=      5-min Rain = 0
KCL2 040355Z 17005KT 22/18 A3008 RMK A01 T02230180  RH  077%=      5-min Rain = 0
KCL2 040356Z 18006KT 22/18 A3008 RMK A01 T02230180  RH  077%=      5-min Rain = 0
KCL2 040357Z 18006KT 22/18 A3008 RMK A01 T02240179  RH  076%=      5-min Rain = 0
KCL2 040358Z 17006KT 23/18 A3008 RMK A01 T02250180  RH  076%=      5-min Rain = 0
KCL2 040359Z 17006KT 23/18 A3008 RMK A01 T02250180  RH  076%=      5-min Rain = 0
KCL2 040400Z 17005KT 23/18 A3008 RMK A01 T02250180  RH  076%=      5-min Rain = 0
KCL2 040401Z 17005KT 22/18 A3008 RMK A01 T02240180  RH  076%=      5-min Rain = 0
KCL2 040402Z 17005KT 22/18 A3008 RMK A01 T02240180  RH  076%=      5-min Rain = 0
KCL2 040403Z 16005KT 22/18 A3008 RMK A01 T02230179  RH  076%=      5-min Rain = 0
KCL2 040404Z 17006KT 22/18 A3008 RMK A01 T02230180  RH  076%=      5-min Rain = 0
KCL2 040405Z 17005KT 22/18 A3008 RMK A01 T02230179  RH  076%=      5-min Rain = 0
KCL2 040406Z 17005KT 22/18 A3008 RMK A01 T02230179  RH  076%=      5-min Rain = 0
KCL2 040407Z 17005KT 22/18 A3009 RMK A01 T02230179  RH  076%=      5-min Rain = 0
KCL2 040408Z 17005KT 22/18 A3009 RMK A01 T02220179  RH  076%=      5-min Rain = 0
KCL2 040409Z 17004KT 22/18 A3009 RMK A01 T02220179  RH  076%=      5-min Rain = 0
KCL2 040410Z 17005KT 22/18 A3008 RMK A01 T02220179  RH  077%=      5-min Rain = 0
KCL2 040411Z 17005KT 22/18 A3008 RMK A01 T02220179  RH  076%=      5-min Rain = 0
KCL2 040412Z 17005KT 22/18 A3009 RMK A01 T02220178  RH  076%=      5-min Rain = 0
KCL2 040413Z 17005KT 22/18 A3009 RMK A01 T02220178  RH  076%=      5-min Rain = 0
KCL2 040414Z 17005KT 22/18 A3009 RMK A01 T02220178  RH  076%=      5-min Rain = 0
KCL2 040415Z 17005KT 22/18 A3009 RMK A01 T02220178  RH  076%=      5-min Rain = 0
KCL2 040416Z 17005KT 22/18 A3009 RMK A01 T02220178  RH  076%=      5-min Rain = 0
KCL2 040417Z 16005KT 22/18 A3009 RMK A01 T02220179  RH  076%=      5-min Rain = 0
KCL2 040418Z 16005KT 22/18 A3009 RMK A01 T02220178  RH  076%=      5-min Rain = 0
KCL2 040419Z 16006KT 22/18 A3009 RMK A01 T02210178  RH  076%=      5-min Rain = 0
KCL2 040420Z 16006KT 22/18 A3009 RMK A01 T02210178  RH  076%=      5-min Rain = 0
KCL2 040421Z 17006KT 22/18 A3009 RMK A01 T02210177  RH  076%=      5-min Rain = 0
KCL2 040422Z 17006KT 22/18 A3009 RMK A01 T02210177  RH  076%=      5-min Rain = 0
KCL2 040423Z 16006KT 22/18 A3009 RMK A01 T02220177  RH  076%=      5-min Rain = 0
KCL2 040424Z 16005KT 22/18 A3009 RMK A01 T02220177  RH  076%=      5-min Rain = 0
KCL2 040425Z 16005KT 22/18 A3009 RMK A01 T02220178  RH  076%=      5-min Rain = 0
KCL2 040426Z 17005KT 22/18 A3009 RMK A01 T02210177  RH  076%=      5-min Rain = 0
KCL2 040427Z 17005KT 22/18 A3009 RMK A01 T02210177  RH  076%=      5-min Rain = 0
KCL2 040428Z 16005KT 22/18 A3009 RMK A01 T02210177  RH  076%=      5-min Rain = 0
KCL2 040429Z 17005KT 22/18 A3009 RMK A01 T02200177  RH  076%=      5-min Rain = 0
KCL2 040430Z 16005KT 22/18 A3009 RMK A01 T02210177  RH  076%=      5-min Rain = 0
KCL2 040431Z 16005KT 22/18 A3009 RMK A01 T02200177  RH  076%=      5-min Rain = 0
KCL2 040432Z 16006KT 22/18 A3009 RMK A01 T02200177  RH  076%=      5-min Rain = 0
KCL2 040433Z 17006KT 22/18 A3009 RMK A01 T02200176  RH  076%=      5-min Rain = 0
KCL2 040434Z 17006KT 22/18 A3009 RMK A01 T02200176  RH  076%=      5-min Rain = 0
KCL2 040435Z 17005KT 22/18 A3009 RMK A01 T02200176  RH  076%=      5-min Rain = 0
KCL2 040436Z 17006KT 22/18 A3009 RMK A01 T02200176  RH  076%=      5-min Rain = 0
KCL2 040437Z 17005KT 22/18 A3009 RMK A01 T02200175  RH  076%=      5-min Rain = 0
KCL2 040438Z 17006KT 22/18 A3009 RMK A01 T02190176  RH  076%=      5-min Rain = 0
KCL2 040439Z 17006KT 22/18 A3009 RMK A01 T02200176  RH  076%=      5-min Rain = 0
KCL2 040440Z 17005KT 22/18 A3009 RMK A01 T02200176  RH  076%=      5-min Rain = 0
KCL2 040441Z 17005KT 22/18 A3009 RMK A01 T02190175  RH  076%=      5-min Rain = 0
KCL2 040442Z 17005KT 22/18 A3009 RMK A01 T02200175  RH  076%=      5-min Rain = 0
KCL2 040443Z 17005KT 22/18 A3009 RMK A01 T02200175  RH  076%=      5-min Rain = 0
KCL2 040444Z 17005KT 22/18 A3009 RMK A01 T02190175  RH  076%=      5-min Rain = 0
KCL2 040445Z 17005KT 22/18 A3009 RMK A01 T02190175  RH  076%=      5-min Rain = 0
KCL2 040446Z 17006KT 22/18 A3009 RMK A01 T02190175  RH  076%=      5-min Rain = 0
KCL2 040447Z 17006KT 22/18 A3009 RMK A01 T02180175  RH  076%=      5-min Rain = 0
KCL2 040448Z 17005KT 22/18 A3009 RMK A01 T02190175  RH  076%=      5-min Rain = 0
KCL2 040449Z 17005KT 22/18 A3009 RMK A01 T02180175  RH  076%=      5-min Rain = 0
KCL2 040450Z 17005KT 22/18 A3009 RMK A01 T02180175  RH  076%=      5-min Rain = 0
KCL2 040451Z 17006KT 22/18 A3009 RMK A01 T02180175  RH  077%=      5-min Rain = 0
KCL2 040452Z 17005KT 22/17 A3009 RMK A01 T02180174  RH  076%=      5-min Rain = 0
KCL2 040453Z 17005KT 22/17 A3009 RMK A01 T02180174  RH  076%=      5-min Rain = 0
KCL2 040454Z 17005KT 22/17 A3009 RMK A01 T02180174  RH  076%=      5-min Rain = 0
KCL2 040455Z 17005KT 22/17 A3009 RMK A01 T02180174  RH  076%=      5-min Rain = 0
KCL2 040456Z 17005KT 22/17 A3009 RMK A01 T02180174  RH  076%=      5-min Rain = 0
KCL2 040457Z 17005KT 22/17 A3009 RMK A01 T02180174  RH  076%=      5-min Rain = 0
KCL2 040458Z 17005KT 22/17 A3009 RMK A01 T02180174  RH  076%=      5-min Rain = 0
KCL2 040459Z 16005KT 22/17 A3009 RMK A01 T02180174  RH  076%=      5-min Rain = 0

Page generated in 0.086 seconds.